GFSSGP_500_spd_003.txt.gz
Wind_Speed
25 22 24 25 25 23 25 24 17 23 32 34 32 30 33 31 36 36 31 29 28 11 14 17 17 21 20 23 22 18 14 10 8 7 6 4 1 4 7 8 10 12 15 17 20 21 22 22 21
22 19 21 21 21 22 22 16 15 19 27 34 36 34 33 36 35 37 28 20 15 10 15 17 18 17 17 17 16 14 12 10 8 8 6 5 5 8 11 12 14 16 18 20 22 24 24 25 25
18 17 16 14 14 16 16 14 11 17 18 23 26 34 36 35 27 28 21 20 8 13 16 14 17 16 15 14 12 12 12 9 8 8 8 9 10 12 15 17 19 21 22 23 25 26 28 28 26
17 17 14 13 13 16 17 13 11 21 24 24 26 17 29 27 23 12 8 6 13 15 16 16 16 16 14 12 13 12 8 7 9 10 10 11 13 16 18 20 21 23 25 28 30 31 31 29 26
17 15 11 12 18 21 22 20 17 17 15 13 22 32 30 35 28 29 7 12 11 15 17 17 18 13 11 11 10 8 8 9 10 11 11 14 16 19 21 23 24 27 30 30 32 30 29 25 25
16 14 12 14 23 23 26 21 16 21 22 22 23 22 24 24 31 25 11 10 14 15 17 19 15 9 10 11 10 10 8 10 11 13 15 18 19 22 23 25 28 29 30 31 32 30 29 29 27
16 17 15 17 19 22 24 23 17 19 24 19 18 13 13 15 16 11 10 8 6 9 14 13 11 11 12 12 12 9 10 13 15 17 19 21 23 25 26 28 29 30 33 33 32 30 31 31 30
18 17 17 18 21 22 29 23 19 22 8 22 21 9 10 11 12 15 11 11 9 9 9 10 10 10 12 10 9 11 15 18 19 20 22 25 26 28 28 27 29 32 32 34 32 31 35 33 32
17 18 17 21 18 14 19 26 24 23 17 13 17 5 6 6 8 8 9 10 11 10 9 10 10 10 9 10 12 15 17 18 20 22 26 27 28 28 26 29 34 35 33 34 33 36 37 36 34
18 18 17 16 18 10 20 15 35 18 3 3 6 6 3 6 7 3 3 5 8 9 9 7 7 9 11 12 15 15 18 20 24 28 29 27 27 30 29 32 36 34 35 35 36 39 40 36 34
20 20 18 20 11 6 5 7 9 6 5 3 2 1 5 6 5 5 6 8 9 9 9 9 9 10 11 14 16 18 21 24 27 30 29 29 30 31 34 34 35 33 34 33 35 36 35 32 29
19 17 17 10 16 12 9 8 6 5 5 5 4 5 3 5 6 7 8 9 10 10 9 8 8 13 17 18 19 22 27 31 33 36 31 28 31 33 34 33 34 33 31 34 34 33 32 31 28
20 16 12 8 7 9 2 2 2 2 4 5 5 2 1 5 6 7 8 8 5 4 7 10 13 14 18 20 22 25 27 30 28 29 27 27 30 30 32 31 33 29 30 34 37 36 34 34 33
16 7 11 7 7 5 1 3 5 10 6 4 4 3 3 4 3 3 5 4 4 8 9 12 16 18 21 24 25 30 33 34 34 31 27 22 24 25 31 31 33 34 37 40 40 38 36 35 34
17 11 7 6 7 6 6 4 14 10 4 4 6 6 4 4 4 6 8 9 11 11 15 20 20 20 26 22 24 25 31 36 39 27 25 23 32 26 33 30 37 37 40 40 39 38 36 37 39
14 9 9 9 10 12 7 8 11 5 2 3 5 8 6 6 6 6 8 10 12 15 20 21 22 23 18 20 20 27 28 26 26 39 31 27 44 50 35 43 39 43 41 42 42 41 41 45 48
5 11 9 8 12 13 10 11 8 7 5 6 8 11 9 10 10 7 8 10 14 17 21 22 22 18 19 23 30 26 38 41 44 44 38 35 36 40 45 46 47 43 41 43 45 47 49 51 53
9 8 8 7 13 12 12 8 8 7 6 9 12 10 9 9 9 11 12 13 14 17 20 19 20 18 29 33 35 40 45 46 48 50 44 40 43 43 42 42 42 42 45 49 51 53 55 58 62
9 11 15 13 12 12 8 7 7 6 8 10 11 10 10 11 9 12 14 17 20 18 20 21 25 34 39 43 44 45 47 52 53 48 40 37 38 39 40 41 44 47 51 55 57 59 62 65 68
13 18 9 13 10 9 8 8 6 6 4 4 3 5 8 10 11 14 18 17 21 21 25 29 34 39 40 44 46 51 55 53 49 43 40 39 39 40 43 47 51 56 59 59 60 63 66 70 72
23 18 12 8 5 8 7 6 3 3 3 4 6 8 11 11 13 14 17 21 23 26 31 35 41 35 39 44 48 51 47 45 42 41 42 44 46 48 51 56 59 60 58 61 66 70 72 77 80
24 20 18 13 11 11 10 9 5 6 7 9 12 13 13 14 11 15 18 23 25 34 35 38 42 43 47 50 48 50 50 47 46 47 48 49 50 52 55 58 60 61 65 70 74 78 82 88 91
19 17 17 22 20 17 13 11 8 8 11 14 15 14 14 16 17 21 24 25 26 30 34 36 42 42 44 45 46 44 42 43 45 47 49 51 54 56 59 62 65 70 75 78 82 86 90 93 96
18 19 17 17 19 17 13 15 11 14 17 16 15 14 15 16 19 23 26 26 26 32 36 35 39 43 45 48 48 48 49 51 53 54 54 54 57 61 63 67 72 76 79 83 87 91 95 98 100
20 18 16 18 18 16 15 19 16 17 15 13 14 13 14 16 17 19 22 23 25 28 32 35 38 42 45 47 48 50 51 51 52 54 57 59 61 64 68 73 77 80 84 89 93 97 98 101 103
20 19 18 19 19 18 19 14 13 10 10 11 11 9 9 10 12 15 19 22 26 29 32 35 38 42 45 47 50 51 52 53 55 58 60 62 65 69 73 76 79 83 88 92 95 100 105 104 101
19 19 17 18 15 13 12 7 6 6 8 5 4 5 8 10 13 16 20 25 28 31 35 38 40 43 46 50 52 55 57 58 59 60 62 65 69 72 75 79 83 88 92 95 101 105 101 91 78
16 13 12 10 8 6 2 4 5 4 4 5 7 8 11 13 15 19 23 27 30 32 35 39 42 47 49 51 55 58 58 60 60 61 64 67 71 74 79 83 86 90 94 100 104 99 85 71 58
12 10 9 7 5 4 5 3 6 7 6 9 11 13 15 17 20 24 28 31 35 38 42 46 50 52 53 53 55 58 60 59 60 63 66 69 74 79 82 86 90 94 99 102 97 79 63 50 40
10 9 8 7 8 9 8 6 8 12 13 14 16 17 20 23 26 29 33 36 40 42 46 50 51 53 54 55 58 60 60 61 63 65 70 74 78 83 87 89 93 98 100 93 73 57 43 38 37

GFSSGP_500_spd_006.txt.gz
Wind_Speed
29 26 23 23 24 24 28 30 33 30 26 27 27 35 35 34 34 37 36 35 37 35 32 15 15 13 16 15 16 17 16 12 9 12 13 10 7 6 6 7 9 12 15 17 19 21 23 24 24
25 24 24 22 23 22 19 29 29 27 25 22 22 31 34 35 37 40 38 44 41 36 29 13 14 16 15 12 13 15 12 9 8 11 12 10 9 9 9 11 12 15 18 20 21 23 25 26 26
23 23 23 19 17 15 16 26 25 25 18 17 27 33 37 35 36 36 39 47 30 32 26 14 17 12 13 13 13 12 10 9 8 10 11 11 11 11 12 14 16 19 21 22 24 25 25 25 22
21 19 19 17 13 19 25 25 23 21 16 16 24 21 34 36 35 38 26 23 22 16 20 19 14 13 12 10 11 11 10 8 8 10 11 11 11 14 16 17 19 20 23 25 25 24 24 22 21
21 19 19 16 17 24 23 23 14 15 21 25 24 23 31 27 33 21 27 23 20 24 11 14 13 10 10 10 10 10 9 8 8 9 10 12 14 17 19 20 21 23 25 25 26 28 29 27 26
18 17 15 12 20 19 21 23 19 18 24 27 16 19 21 17 21 28 25 25 30 20 11 9 12 8 9 10 11 12 9 9 8 10 14 16 18 20 22 23 25 25 25 25 30 30 31 28 27
19 17 20 19 15 19 26 25 29 24 20 27 20 17 12 8 10 11 8 13 18 9 6 13 10 10 10 13 14 13 11 11 10 15 17 19 21 24 25 26 28 28 26 28 32 30 29 24 30
18 17 18 16 15 18 19 30 23 28 22 24 12 13 1 5 5 10 13 6 5 4 6 10 11 14 15 15 13 12 12 13 15 18 22 24 24 24 27 29 30 31 30 30 30 30 25 30 33
17 15 15 17 17 15 20 23 22 22 26 20 8 2 1 1 4 7 1 5 6 7 10 13 14 12 12 12 12 13 15 17 20 22 23 24 27 27 30 31 33 33 33 32 29 30 32 34 35
18 16 18 17 18 11 21 4 14 22 27 6 2 2 5 1 2 3 5 8 11 12 11 12 12 10 11 10 13 15 19 19 21 25 28 30 32 30 32 33 36 34 34 32 31 30 32 34 36
20 19 19 15 15 11 5 9 6 3 3 4 5 4 6 5 4 6 8 9 11 11 11 9 8 9 11 13 15 16 17 21 25 29 31 35 37 36 34 35 37 34 34 33 33 31 31 35 36
19 17 17 19 17 8 11 5 2 9 7 9 9 5 5 6 7 8 8 9 9 9 9 8 9 12 13 13 14 17 20 24 29 33 35 36 33 36 36 34 36 35 34 34 34 32 33 36 37
19 15 12 5 4 12 7 4 3 3 7 9 7 3 3 5 5 7 7 8 6 7 7 10 12 13 13 15 18 22 25 27 30 34 36 36 35 40 36 26 30 34 34 34 36 38 39 39 40
21 17 15 13 12 8 4 3 3 3 4 7 7 5 4 6 4 3 3 3 5 6 9 11 11 12 16 20 23 23 24 26 34 35 30 38 37 38 23 29 27 45 40 38 42 40 41 41 40
17 10 6 8 11 8 4 4 7 11 8 6 1 1 4 5 4 5 8 9 9 9 10 13 12 15 19 22 23 21 25 35 31 30 31 33 36 44 45 41 52 50 43 42 43 44 40 40 40
17 13 12 7 10 11 6 5 8 5 2 1 3 3 4 5 7 9 9 7 6 9 12 13 15 18 22 20 20 29 19 33 34 34 36 36 43 44 45 44 45 46 45 50 45 40 40 40 42
16 9 6 8 13 12 11 9 11 7 5 5 6 7 6 7 7 8 9 10 11 12 13 12 17 18 21 22 30 41 40 37 41 41 45 42 39 39 37 39 42 46 46 44 43 42 43 45 47
5 7 7 7 11 13 13 11 7 6 6 8 9 7 9 11 11 11 12 14 15 16 18 18 19 21 24 30 38 42 44 45 46 47 44 40 40 39 38 38 41 43 44 45 46 49 52 56 56
10 14 10 9 12 16 13 10 6 7 8 10 8 11 14 12 11 10 13 16 18 20 19 17 20 25 30 36 36 37 39 46 48 44 38 35 35 36 39 41 45 47 50 51 54 58 61 61 61
9 15 12 10 14 11 10 8 8 11 11 11 9 10 11 9 9 12 15 17 19 20 20 23 28 33 34 37 40 41 45 48 47 45 44 44 45 47 49 50 52 53 55 57 58 58 59 64 68
7 16 9 6 4 8 8 9 8 7 7 7 7 9 11 12 12 13 14 15 19 22 22 26 32 30 32 35 38 41 42 43 46 48 49 48 48 49 51 52 53 54 56 58 61 64 67 70 73
8 20 15 9 10 6 8 10 11 10 9 10 11 12 13 14 13 13 17 18 19 20 21 23 23 26 31 34 35 38 42 45 47 49 50 52 53 52 52 54 56 59 60 62 66 69 72 74 79
18 17 17 13 13 13 13 15 19 14 11 13 14 15 15 14 14 17 17 19 17 16 17 19 22 27 30 33 37 40 44 46 48 50 52 52 53 55 57 57 58 60 64 67 70 73 78 82 86
17 14 15 16 19 22 22 20 18 15 15 17 18 17 14 14 17 16 15 13 13 16 19 22 25 29 34 38 42 45 48 51 52 53 55 56 56 57 58 59 61 64 67 71 76 81 85 89 93
16 14 16 17 18 18 18 22 19 18 18 18 18 16 15 15 14 11 11 12 15 19 22 25 28 32 37 41 45 47 50 51 51 54 56 58 58 58 59 62 65 69 74 78 83 87 92 94 96
21 20 20 21 20 17 18 20 19 17 18 18 16 13 11 10 9 11 14 16 20 24 27 29 31 34 38 41 44 48 50 52 54 57 59 60 61 61 62 65 69 74 78 83 88 91 93 98 103
18 20 19 21 20 19 17 12 14 15 15 12 8 8 8 10 12 14 17 21 25 28 31 33 35 38 41 43 47 53 56 56 58 59 61 61 61 61 64 68 74 78 82 86 89 94 100 104 101
21 19 19 18 16 13 6 6 6 8 6 8 9 9 12 14 16 19 22 26 29 32 35 36 38 42 44 47 48 54 57 59 59 61 62 60 61 64 68 72 77 81 85 90 95 101 103 88 72
18 16 15 13 11 7 6 6 8 9 11 12 13 16 18 19 21 24 28 30 34 37 39 40 42 46 49 52 54 57 59 61 61 62 62 63 65 68 73 77 82 85 88 95 102 100 81 67 59
14 13 13 13 11 10 11 10 14 13 15 18 19 21 23 25 28 31 34 37 40 43 45 45 47 50 53 56 58 60 62 62 62 64 64 66 70 74 78 81 84 88 95 100 90 75 66 56 46

GFSSGP_500_spd_009.txt.gz
Wind_Speed
31 28 29 29 29 29 25 17 30 31 34 30 32 34 39 36 39 38 41 35 35 35 38 38 36 31 20 19 22 22 18 18 15 12 13 15 12 9 8 7 8 10 12 14 16 17 18 20 21
28 27 26 28 27 17 12 18 32 33 23 32 33 33 34 37 36 36 35 37 34 35 43 44 39 33 19 21 21 18 17 14 11 10 13 14 12 11 10 10 12 13 15 18 19 20 20 20 21
26 24 25 25 23 16 12 20 39 34 31 35 32 32 30 31 33 36 38 37 34 38 47 48 48 29 22 20 20 15 14 13 11 11 14 15 14 13 10 13 14 17 18 19 20 21 21 22 21
23 23 25 22 15 12 20 27 31 25 30 33 30 26 24 31 31 35 36 36 38 39 44 41 35 25 20 22 20 14 12 12 11 11 14 15 13 11 14 16 18 20 20 22 22 21 23 23 24
24 22 21 17 15 16 25 19 10 23 21 32 30 24 31 29 30 28 33 33 38 39 52 49 21 17 18 20 18 10 10 10 9 10 12 13 13 15 17 18 20 23 24 25 24 22 26 26 28
23 22 18 13 13 21 18 22 24 25 28 12 24 25 24 28 28 23 27 22 31 30 37 26 21 25 23 20 12 8 8 8 7 8 11 13 16 18 20 23 24 27 29 28 27 26 27 28 28
24 18 16 10 15 19 17 21 20 25 21 29 17 22 23 20 21 18 24 24 16 17 26 15 17 22 16 12 6 7 7 8 7 9 14 16 20 21 24 26 30 30 32 31 31 29 28 27 24
24 20 15 15 13 21 21 23 28 30 31 26 25 27 23 22 7 8 8 18 28 21 9 18 15 18 9 8 7 6 8 8 11 15 18 21 23 25 28 32 36 34 33 31 31 30 29 31 28
23 17 10 11 21 13 9 19 23 29 32 24 6 27 17 14 6 5 6 9 16 26 11 8 9 5 6 2 4 7 9 12 15 16 18 20 24 29 31 35 38 38 36 35 33 29 29 32 31
20 15 7 22 25 16 18 13 16 25 18 22 23 23 7 6 5 6 6 6 7 7 6 5 3 4 2 4 7 9 12 13 15 18 22 25 28 30 33 36 37 39 36 38 36 35 35 33 34
19 18 18 24 13 19 2 2 4 9 9 13 5 9 7 3 6 4 6 4 6 4 5 5 4 4 5 7 9 11 12 15 18 22 25 27 29 30 31 34 40 40 35 40 39 35 36 33 36
21 23 19 28 24 17 9 10 9 16 16 11 8 6 2 2 2 3 1 2 1 3 4 4 6 8 9 9 11 13 16 19 24 25 28 32 28 31 31 33 33 39 38 36 32 33 36 38 43
21 21 20 21 19 10 12 8 8 7 4 2 4 4 1 2 2 2 1 0 2 4 6 9 10 9 10 11 14 17 22 23 25 28 29 25 22 28 31 35 42 22 34 36 38 42 45 43 44
16 18 14 12 13 13 10 6 4 5 4 3 0 2 1 2 1 0 1 1 3 6 8 8 8 9 13 16 17 20 21 20 26 28 24 29 29 34 36 37 37 43 44 44 46 48 49 46 44
18 11 14 23 15 9 5 7 5 8 4 2 2 0 2 3 3 4 6 7 6 7 7 7 9 12 15 18 21 22 21 23 26 41 38 38 42 40 45 44 43 44 44 48 49 48 49 49 50
17 11 10 4 11 10 9 12 4 8 7 6 4 2 1 2 3 6 6 6 6 6 8 9 12 15 16 17 18 29 24 41 42 38 39 40 40 37 32 33 35 42 44 43 44 46 48 47 47
15 9 12 10 11 9 10 16 6 5 4 4 5 4 3 4 5 6 6 7 8 9 10 11 16 18 17 17 21 25 31 35 38 41 44 46 46 45 42 38 38 39 41 41 42 44 46 47 47
12 9 7 8 12 12 9 16 10 7 9 10 8 7 6 8 8 9 10 11 11 12 13 17 17 15 15 22 28 32 34 37 38 40 44 46 44 42 42 42 41 44 46 49 51 53 54 54 56
4 7 7 12 7 12 10 11 8 8 8 9 9 8 10 12 11 10 11 12 14 16 18 19 18 21 25 30 31 32 31 32 36 39 42 42 41 42 44 47 50 52 52 55 55 55 55 57 58
8 9 12 9 8 10 10 10 7 7 10 11 12 11 11 11 11 11 13 15 16 18 21 22 23 25 28 26 26 28 30 32 34 36 38 43 46 49 50 50 51 53 54 55 56 58 58 58 59
7 9 12 6 7 11 11 14 9 9 10 9 9 9 11 11 14 16 17 17 18 21 23 25 24 25 22 22 25 28 31 35 38 40 42 44 46 48 51 53 54 54 55 55 56 56 57 59 61
9 14 7 11 7 10 11 12 14 10 11 10 11 14 16 17 18 20 21 20 21 24 23 20 17 18 21 24 28 31 35 38 41 45 47 50 51 52 54 56 57 55 54 55 56 57 60 65 69
18 6 11 11 7 18 8 15 31 8 16 16 16 18 20 21 22 23 22 23 24 19 16 16 18 21 24 27 30 33 37 41 44 46 48 51 53 55 57 58 58 57 56 58 59 62 67 72 76
10 13 9 13 9 16 15 17 18 16 21 26 23 23 23 24 24 25 24 24 19 15 16 19 21 23 27 32 35 38 42 46 49 50 51 54 57 58 58 59 59 59 60 62 66 70 73 78 82
14 11 7 10 16 16 17 22 18 19 17 28 26 28 27 25 25 25 22 17 15 16 20 23 25 28 32 36 39 42 46 50 53 53 56 58 59 60 61 62 62 63 64 68 72 77 80 84 87
14 11 13 15 11 14 20 22 16 24 32 30 27 27 24 23 22 17 17 17 18 22 25 28 31 34 36 40 42 45 49 52 55 55 58 60 63 62 62 64 64 65 69 73 78 81 84 88 95
15 19 21 21 21 21 20 18 22 21 25 26 23 18 17 14 15 16 18 21 24 28 32 35 38 40 42 45 48 50 51 54 57 58 60 62 63 63 65 66 66 69 73 78 81 83 88 96 99
21 20 18 20 23 21 7 14 13 18 13 13 11 12 13 16 19 22 25 27 32 35 38 41 44 45 48 51 53 56 57 58 58 59 62 64 65 65 67 67 70 74 77 80 81 88 97 99 88
20 21 19 20 19 15 13 6 18 12 11 11 13 15 19 22 24 27 30 34 37 40 44 47 49 51 54 56 57 59 61 59 61 61 64 65 65 67 66 69 73 77 79 81 88 96 97 87 81
19 18 18 18 18 15 13 12 13 15 16 17 19 22 24 26 30 32 34 38 42 45 48 50 53 55 57 59 60 62 61 61 62 63 65 66 66 66 68 71 76 77 80 86 91 98 91 79 72

GFSSGP_500_spd_012.txt.gz
Wind_Speed
27 29 31 31 31 29 25 24 16 27 38 29 36 43 36 30 33 32 31 40 27 32 35 39 42 39 40 34 38 30 28 28 24 19 14 14 19 15 11 9 7 8 10 12 14 15 16 17 16
27 28 29 30 30 27 18 12 32 27 27 31 33 41 37 33 35 35 37 41 43 37 39 40 40 41 41 43 35 29 28 26 20 15 13 15 18 15 12 10 10 11 13 14 16 18 18 17 17
26 28 27 27 27 24 14 24 25 27 33 32 33 39 34 34 37 36 32 36 36 37 38 41 41 43 45 38 36 30 24 23 16 13 11 15 16 14 11 11 14 15 16 18 19 19 18 18 19
26 27 24 25 24 12 7 24 22 24 37 36 32 36 34 34 35 30 26 31 32 36 39 42 45 45 49 44 39 28 23 16 13 10 10 12 13 12 13 15 16 18 20 22 23 23 21 21 22
24 23 24 21 16 17 14 33 31 35 19 21 34 30 30 34 33 29 23 27 31 34 40 40 37 44 48 46 33 28 16 6 7 6 8 11 11 13 16 17 19 22 24 27 29 30 27 28 27
25 23 22 15 5 3 16 37 33 39 27 21 18 10 26 32 33 30 23 24 30 32 38 32 41 44 35 14 24 17 6 1 2 6 8 9 12 14 16 19 22 25 29 30 32 32 30 32 28
26 23 17 12 8 22 19 34 38 33 28 30 28 30 12 28 22 23 25 23 29 35 38 35 30 21 28 24 14 3 2 3 3 5 7 9 12 15 18 20 23 28 30 31 32 32 31 31 28
26 21 20 14 8 16 25 29 30 27 15 20 29 29 29 20 14 16 16 22 21 18 17 31 18 24 15 13 9 5 2 4 5 8 8 9 13 14 18 23 27 28 26 29 31 32 33 33 29
28 22 19 9 8 30 31 37 28 20 25 22 27 27 25 17 10 20 15 8 15 23 27 19 12 3 6 11 9 4 3 4 6 9 11 13 16 20 24 27 28 26 25 28 32 32 32 33 34
26 15 14 22 27 36 33 24 12 20 24 24 23 17 12 12 14 15 13 12 17 16 3 7 7 13 14 7 4 3 5 5 7 11 16 20 21 22 24 27 29 26 28 29 32 33 31 31 29
25 25 4 21 28 22 13 8 10 15 19 21 13 14 6 5 6 8 8 9 10 10 10 9 5 3 2 1 3 5 6 9 12 16 18 21 23 27 27 27 29 29 29 34 34 29 27 32 34
26 22 6 17 11 7 3 16 13 12 21 14 3 12 6 9 10 6 8 5 6 6 5 3 4 6 7 5 5 7 9 11 13 14 19 23 26 28 31 33 32 27 31 30 44 42 42 40 40
24 21 16 10 13 11 20 18 18 10 7 16 8 6 4 6 5 5 4 4 1 3 3 2 2 4 5 5 8 10 13 12 13 14 19 27 38 27 27 33 33 38 39 40 43 47 46 45 43
24 21 20 18 18 14 17 14 5 8 3 4 7 4 4 4 1 3 5 4 3 2 2 3 4 5 8 10 13 14 16 14 17 22 26 34 33 31 32 35 35 32 33 33 35 40 43 41 43
19 19 17 18 15 17 4 5 4 2 1 3 2 2 2 3 2 0 2 3 2 3 4 5 7 9 10 12 15 16 22 22 23 28 29 30 33 33 34 35 32 32 30 28 33 43 43 42 40
15 9 11 13 14 11 10 7 7 4 2 4 5 1 1 2 1 3 4 4 4 6 7 9 12 12 13 14 16 16 22 27 30 30 30 30 31 34 36 37 37 37 37 37 37 40 41 44 45
12 8 9 8 13 5 10 13 5 7 9 7 3 1 1 1 2 3 3 5 5 8 11 12 14 16 16 15 19 22 26 27 26 25 27 30 33 35 38 39 40 42 43 44 44 45 45 46 48
10 14 3 5 7 12 2 18 8 7 12 22 10 6 2 2 3 4 6 8 10 13 15 18 18 19 19 19 21 26 24 21 23 26 30 33 37 38 41 41 41 44 47 50 52 53 53 52 51
11 5 5 8 5 13 13 12 11 7 8 8 0 10 2 4 5 6 7 11 13 16 16 18 18 19 21 21 24 19 19 21 26 30 33 36 38 39 42 45 48 50 51 53 55 56 56 52 50
2 4 11 15 11 8 11 13 8 7 5 4 8 4 5 5 4 6 10 13 16 16 19 22 22 24 24 21 17 19 21 25 29 32 35 38 41 44 46 47 49 51 53 54 56 57 56 52 52
6 9 14 10 5 15 22 21 16 11 9 9 4 7 10 10 11 12 15 19 21 20 23 26 24 20 16 17 20 23 27 31 34 35 37 40 42 45 48 50 52 54 55 56 57 57 55 55 55
16 14 13 11 8 4 8 15 24 15 7 11 10 10 13 18 18 18 20 23 23 23 26 27 16 16 18 20 24 28 32 35 38 41 43 46 49 51 53 54 57 59 60 59 59 57 56 57 61
8 19 9 9 7 16 20 21 22 17 17 16 11 14 19 22 24 24 24 25 25 27 27 17 16 18 21 25 29 33 37 41 44 47 49 51 53 54 56 57 59 60 60 60 60 58 59 62 66
9 4 8 13 13 18 15 17 17 27 15 19 18 17 19 26 29 31 31 28 29 26 19 18 20 23 26 30 34 38 41 46 49 51 53 55 56 56 57 58 60 61 60 61 59 60 64 68 71
13 7 2 9 15 16 9 17 23 24 20 18 20 13 24 29 33 34 29 26 21 17 19 22 25 29 32 35 39 43 46 49 52 55 57 60 61 61 60 60 62 63 62 59 61 64 69 72 73
3 12 12 19 19 16 15 16 12 18 26 32 34 33 26 28 28 25 21 17 18 21 24 28 32 35 37 42 45 49 51 54 56 57 59 60 60 62 61 62 64 63 60 60 64 68 72 75 81
12 11 16 22 19 10 18 15 10 21 24 22 31 25 22 21 17 15 17 20 22 26 30 34 38 41 43 47 50 53 56 58 59 60 61 60 58 59 61 64 65 63 62 66 68 72 72 80 88
15 17 15 18 21 19 12 10 13 22 22 18 19 13 12 13 15 20 24 26 28 31 35 39 44 46 47 50 52 56 58 60 61 61 60 59 59 61 63 65 63 63 67 70 74 73 77 84 95
15 19 18 18 19 19 13 9 14 20 20 15 16 15 16 18 22 25 29 32 34 36 39 42 48 50 50 52 56 58 60 61 62 61 60 58 60 62 64 62 62 65 68 74 74 79 77 82 95
18 15 16 22 19 22 16 13 21 19 19 19 19 22 24 26 28 31 32 35 39 42 45 46 51 54 54 56 57 59 60 60 60 60 59 59 61 63 62 64 66 67 70 75 75 79 81 89 97

GFSSGP_500_spd_015.txt.gz
Wind_Speed
25 31 34 33 30 26 23 25 16 21 21 27 32 27 32 36 32 32 32 32 36 41 21 20 31 33 38 43 42 42 34 35 30 26 27 21 17 20 18 14 10 9 10 10 11 14 15 16 15
25 28 31 32 28 26 28 19 13 17 25 27 17 27 29 37 35 31 34 35 36 44 42 40 35 38 41 40 39 38 37 39 29 26 23 18 15 20 18 13 10 12 13 13 14 17 18 18 16
25 26 28 29 28 27 17 18 24 21 28 30 29 31 31 36 34 34 33 35 35 38 41 41 38 39 39 39 41 40 41 32 28 24 15 12 14 18 15 13 14 15 14 15 18 20 22 21 20
25 26 26 25 23 17 13 12 21 16 21 23 30 36 31 35 36 35 34 34 31 32 35 36 37 35 39 41 42 44 35 30 28 23 9 8 14 17 15 15 15 15 16 18 20 23 25 25 25
24 25 24 21 16 17 18 18 26 23 23 23 26 21 26 34 30 28 27 27 29 28 30 26 35 25 31 39 46 47 32 25 24 10 7 11 12 14 15 14 14 16 18 20 22 25 26 25 25
23 25 20 10 14 11 10 17 18 27 36 29 31 22 22 23 27 20 20 20 20 23 27 34 39 30 36 47 38 25 21 17 6 6 8 9 11 8 10 13 17 19 21 24 26 25 24 23 24
23 22 18 24 18 9 16 24 26 27 31 29 25 24 31 32 20 27 22 25 24 23 18 34 35 28 40 35 29 19 8 9 7 7 4 4 5 7 12 17 19 23 27 28 26 26 27 27 27
26 22 22 23 10 14 20 18 30 27 21 19 15 22 28 29 24 18 24 23 25 23 33 37 28 26 16 22 10 13 12 11 5 2 4 5 11 12 15 18 22 25 28 29 27 28 25 26 23
31 24 20 18 14 13 16 19 24 29 32 16 23 22 22 23 14 13 16 15 20 25 30 17 22 19 21 7 9 18 11 6 3 4 6 8 11 15 19 22 25 26 28 27 27 30 30 28 25
26 25 23 10 15 20 18 20 28 27 26 22 18 18 19 23 14 10 17 17 16 22 25 5 11 3 14 20 20 14 7 4 3 5 8 12 15 16 20 22 28 26 29 32 30 31 29 28 25
28 19 20 3 13 22 17 22 19 21 17 12 18 24 13 12 4 11 15 21 11 17 14 7 19 18 18 12 10 7 6 4 4 7 10 12 16 16 18 26 24 31 29 31 32 31 36 36 33
31 17 3 6 7 15 8 9 12 9 12 12 17 9 11 11 12 8 8 7 16 3 6 10 11 12 10 9 5 4 3 4 7 9 12 13 16 24 24 28 26 24 27 27 28 30 31 35 35
25 17 4 1 10 7 9 12 13 15 10 9 9 6 5 8 6 3 5 7 7 9 6 5 5 8 8 5 5 3 3 7 7 12 16 19 21 23 22 25 23 25 26 26 28 30 30 31 35
19 15 4 2 12 8 14 16 8 2 3 3 3 1 8 5 8 4 4 3 3 2 2 3 5 6 5 4 4 5 4 6 9 15 18 19 20 19 19 21 24 26 28 29 30 31 31 34 37
21 22 10 12 16 9 11 4 6 5 4 4 4 6 4 2 8 5 4 3 3 3 1 2 5 5 5 7 10 12 7 11 16 20 18 15 16 19 22 24 27 30 32 32 32 33 34 35 38
10 24 17 14 15 12 5 2 5 1 4 3 6 5 1 1 0 2 5 2 1 1 3 3 6 9 9 11 13 13 15 18 20 14 13 16 19 23 26 29 32 34 36 37 39 39 40 41 44
15 11 3 11 14 11 4 4 8 9 3 2 2 2 2 3 1 2 3 1 2 4 8 8 11 15 16 17 14 15 18 19 12 13 17 21 24 27 30 33 36 38 40 42 43 45 47 49 49
8 7 9 12 11 11 3 5 11 13 11 2 7 2 3 1 1 2 2 1 5 7 11 14 16 19 18 18 18 18 17 13 16 19 23 26 29 33 35 37 39 41 43 45 47 48 50 51 51
16 10 9 9 7 8 5 9 10 14 8 7 9 12 8 3 3 5 3 5 8 8 14 16 16 17 17 16 14 11 14 17 21 26 29 31 34 37 40 42 44 47 48 49 50 51 52 52 53
15 8 4 8 10 6 8 10 11 7 7 7 4 1 4 1 4 7 9 8 11 14 14 17 19 18 11 8 12 14 18 22 27 31 34 37 41 43 45 47 50 52 52 52 53 54 55 56 56
2 9 14 14 16 13 16 20 21 10 8 12 10 5 0 3 4 10 14 18 19 19 17 19 23 15 11 13 16 18 22 26 30 35 38 42 44 46 49 52 55 56 58 58 58 56 56 55 53
2 5 19 19 13 9 16 19 15 16 8 7 16 15 15 11 5 11 17 23 27 28 23 20 17 18 16 20 23 27 30 33 36 39 42 45 48 51 54 56 58 59 59 58 57 57 57 53 52
2 9 12 10 7 8 14 15 20 19 12 16 13 16 19 19 18 17 19 25 29 29 25 20 11 14 18 23 28 32 36 39 42 45 49 52 54 55 57 59 60 60 57 55 56 58 54 53 56
1 2 11 11 14 14 13 17 13 12 15 16 20 19 15 19 23 23 24 24 26 25 20 14 15 19 24 29 32 35 38 42 46 50 53 55 56 58 60 60 59 57 55 55 58 55 53 55 58
9 7 12 16 18 21 18 22 14 9 12 12 12 17 15 23 22 21 21 19 18 17 17 19 21 24 28 33 37 41 44 48 51 54 55 56 57 60 60 58 57 55 55 58 56 55 56 59 61
11 13 15 15 18 13 21 22 8 12 10 13 13 12 17 17 19 18 15 9 10 14 19 23 26 29 32 36 40 44 47 51 53 55 57 58 59 60 58 57 56 56 58 57 55 58 62 64 64
17 11 13 18 22 17 9 12 16 18 18 19 19 12 11 11 11 9 9 12 16 20 25 28 31 33 36 40 44 48 50 52 54 57 58 59 59 57 59 57 58 60 60 58 60 65 68 69 69
17 17 18 22 23 18 9 13 17 17 17 19 18 8 8 9 12 15 18 20 22 26 30 34 38 39 41 43 47 50 52 53 55 56 56 58 60 55 58 60 63 61 62 64 68 72 76 80 77
17 17 20 20 22 20 10 13 15 14 18 21 20 15 13 14 16 20 23 26 28 29 32 38 43 45 46 47 49 51 53 54 55 57 57 59 58 58 59 59 60 63 68 70 73 77 88 90 89
16 16 19 20 16 21 13 12 18 18 21 21 22 23 21 20 22 26 30 32 33 35 36 40 47 50 51 49 49 51 53 55 57 56 57 56 57 60 60 59 62 66 67 71 73 83 87 93 93

GFSSGP_500_spd_018.txt.gz
Wind_Speed
24 27 29 30 32 36 33 27 25 25 27 24 22 19 24 24 29 26 28 31 32 34 36 34 31 31 31 32 34 35 34 37 37 29 28 28 24 20 21 18 15 12 12 11 13 14 16 19 18
20 25 27 28 31 34 33 25 18 21 23 22 18 21 29 28 29 32 31 30 35 37 36 39 34 40 44 39 37 35 37 36 34 31 34 27 23 16 20 20 16 14 14 13 15 16 18 19 19
18 24 25 26 29 32 22 13 21 21 22 24 27 28 22 29 34 33 32 32 37 38 40 42 38 32 36 39 39 36 36 36 35 35 33 25 18 13 18 20 19 19 14 15 16 18 21 21 20
20 22 24 27 28 25 11 20 18 23 17 26 26 28 28 26 33 35 39 40 43 43 38 36 30 31 33 35 33 34 39 40 39 36 34 21 10 13 20 19 22 16 15 17 19 22 25 27 26
23 24 25 27 16 15 19 23 23 21 20 17 21 23 24 18 19 26 31 36 36 34 35 30 29 22 30 35 34 40 39 37 39 35 21 8 10 17 20 18 16 16 18 20 22 25 29 29 27
24 25 26 18 14 20 29 29 20 23 24 24 24 19 26 25 24 26 24 30 33 31 34 18 21 31 33 37 35 36 37 38 35 12 9 10 13 13 14 14 14 16 20 23 25 29 31 29 26
25 21 17 18 21 21 30 27 22 21 25 21 18 23 28 30 32 30 25 26 21 16 25 23 29 35 42 33 30 31 28 26 13 13 11 11 13 16 12 12 13 20 24 24 26 26 27 28 28
26 21 18 24 24 22 22 23 21 19 20 16 13 16 21 28 32 32 24 17 23 16 23 16 33 38 31 17 22 23 18 14 15 12 9 10 9 8 10 12 22 22 24 23 24 24 28 29 29
22 16 20 28 23 17 11 14 16 12 16 17 22 15 19 26 27 22 19 20 17 21 28 25 30 23 16 14 8 15 13 16 14 8 6 5 6 10 15 21 23 21 23 23 21 25 27 27 29
21 19 21 28 21 17 14 14 10 7 14 20 20 17 22 21 20 18 18 17 18 17 18 26 25 35 18 15 8 18 17 12 9 8 10 11 14 15 15 18 22 21 23 24 26 26 28 31 33
24 18 16 29 19 12 11 12 14 6 1 8 13 14 21 19 22 23 19 22 21 24 6 10 9 5 13 16 19 16 12 8 6 9 11 11 13 13 13 22 21 22 24 21 21 22 23 24 26
22 21 17 16 5 6 5 11 6 8 7 6 10 12 17 8 11 22 20 19 9 8 9 8 13 12 16 13 10 9 5 5 5 4 8 11 14 16 17 18 18 16 17 20 22 25 27 30 30
23 18 11 10 5 5 3 4 5 3 4 6 4 6 3 5 4 9 11 14 9 9 11 12 13 12 12 12 9 7 7 3 3 4 9 11 14 14 11 11 15 18 22 25 28 31 32 33 34
27 24 8 13 7 3 3 3 2 5 2 3 2 3 7 7 2 5 10 12 14 11 11 10 10 10 7 5 3 1 5 2 3 8 13 15 9 9 13 16 20 24 26 28 29 30 32 34 36
24 14 18 8 6 6 5 0 4 6 3 4 4 4 7 6 5 3 4 5 8 9 8 7 6 5 3 1 2 2 4 4 11 10 10 7 10 13 17 21 24 26 28 29 31 33 35 36 36
19 14 6 5 11 2 7 8 6 4 3 5 2 3 6 6 2 2 4 4 6 6 6 4 2 2 4 6 5 5 4 10 13 9 6 10 13 17 20 24 28 30 32 33 34 36 38 39 39
17 15 17 11 13 14 10 6 7 6 1 4 2 3 6 7 6 4 3 3 4 3 4 6 8 8 10 10 9 8 10 12 8 8 11 16 19 22 25 29 33 35 37 39 40 42 43 43 43
14 13 9 9 11 4 5 5 8 5 6 1 0 2 1 6 8 5 3 3 4 4 7 10 13 12 13 14 13 11 8 6 8 12 16 20 23 27 31 34 37 40 41 44 46 47 47 48 48
23 22 21 13 10 6 5 1 5 8 4 5 4 2 4 1 5 3 3 6 9 10 13 13 11 11 11 10 7 6 7 10 14 19 23 27 30 33 36 39 42 44 47 48 50 50 50 49 49
20 16 13 17 14 10 9 9 7 7 4 2 3 7 4 3 1 4 4 7 12 12 13 13 12 11 5 6 8 11 13 17 22 25 29 32 34 38 42 45 48 49 50 52 53 53 51 50 49
15 12 15 11 9 6 13 12 7 7 7 6 2 1 3 4 4 1 2 6 10 12 13 14 13 12 4 7 11 15 18 23 27 31 34 37 40 44 47 50 51 54 54 56 57 54 52 51 51
14 17 14 12 12 14 14 19 9 7 9 12 10 8 7 7 8 5 4 6 12 15 12 12 13 13 9 11 15 19 24 28 31 35 39 42 45 47 49 53 55 56 57 57 54 53 53 53 55
9 10 17 16 13 15 18 22 14 8 10 9 13 9 6 1 5 6 7 11 13 13 10 10 10 12 13 18 22 25 29 33 36 39 42 46 48 51 53 56 57 56 56 54 53 53 54 55 53
4 4 9 13 17 19 18 18 13 12 12 7 12 7 11 7 13 13 13 13 12 10 6 7 6 12 16 21 27 32 36 39 42 46 48 51 54 56 57 57 57 57 55 55 56 56 58 56 55
7 6 13 16 18 20 20 20 17 9 11 2 6 12 12 8 11 12 12 12 8 9 10 11 13 18 22 27 32 36 40 43 48 51 53 55 57 58 59 57 58 59 55 58 59 60 59 59 62
12 11 16 23 25 26 24 25 21 19 8 5 7 9 13 11 12 11 7 4 6 10 16 19 22 24 28 33 36 39 42 47 51 53 54 56 58 58 58 59 61 58 57 60 62 61 61 63 65
15 12 13 22 23 21 14 22 25 18 16 10 6 6 8 3 4 5 2 7 11 15 18 22 27 29 33 37 40 43 46 51 52 53 54 56 56 57 61 59 60 59 62 62 60 63 66 67 68
20 17 18 20 24 21 20 18 18 16 13 9 6 3 8 8 9 9 9 12 16 19 24 27 30 34 38 41 43 43 49 50 51 53 55 56 58 58 59 58 59 61 63 62 65 68 70 73 74
26 25 20 21 23 22 17 16 17 18 17 17 14 9 11 12 14 14 15 17 21 25 29 33 37 41 42 42 42 44 45 48 52 55 56 52 59 57 56 59 62 62 62 66 67 70 74 83 85
25 19 19 22 23 25 23 16 18 18 21 22 19 14 12 15 17 18 19 23 27 29 33 37 39 39 43 42 44 45 45 49 54 57 55 52 52 56 59 61 61 61 65 70 72 74 81 85 84

GFSSGP_500_spd_021.txt.gz
Wind_Speed
19 23 28 30 31 31 34 31 17 27 26 24 23 29 29 23 23 22 24 27 29 29 30 31 33 32 30 29 24 23 33 33 35 32 33 29 23 25 21 19 19 18 14 15 16 14 15 15 18
21 21 26 30 30 30 27 23 25 24 26 28 30 29 22 20 24 25 26 33 33 33 34 36 36 35 34 30 31 39 38 35 34 35 32 29 26 26 19 19 21 17 19 18 17 17 17 19 21
22 23 26 31 32 23 17 13 24 23 27 25 22 25 24 22 20 26 32 32 33 34 38 41 39 36 30 31 31 35 35 36 36 34 32 28 27 19 19 19 21 23 21 20 18 18 20 23 24
23 25 28 31 27 18 13 20 19 26 25 24 22 27 27 27 22 24 30 31 33 41 46 43 38 32 29 31 32 33 36 34 35 35 32 29 25 23 18 20 21 22 23 19 20 23 24 24 28
23 26 26 26 19 18 16 21 24 25 27 22 22 26 26 27 30 30 28 28 27 35 39 38 35 32 31 32 31 37 32 30 33 32 33 31 21 18 16 19 20 20 19 20 22 21 25 28 31
21 23 23 17 14 13 22 25 24 28 30 25 22 19 25 19 28 29 24 29 33 34 30 39 34 33 37 36 39 35 32 35 34 33 34 24 11 13 14 17 16 16 20 19 21 28 30 29 27
18 18 17 14 19 19 26 30 29 26 26 27 24 20 21 27 28 30 35 39 30 29 31 37 31 40 39 37 35 31 36 36 30 31 15 10 9 10 10 10 14 15 15 19 24 27 25 25 26
14 13 15 23 22 23 29 31 30 25 24 24 26 28 21 19 19 22 29 30 30 22 19 22 34 39 37 42 33 32 37 33 33 16 12 10 10 11 12 10 10 14 22 25 25 23 24 27 26
17 17 19 20 22 20 20 17 27 18 14 18 15 14 20 21 18 23 26 24 22 21 20 23 19 34 24 16 20 24 29 25 21 15 11 8 5 4 6 12 16 21 22 20 20 21 25 25 25
22 12 12 15 19 6 9 15 17 17 12 15 17 17 17 18 22 24 24 18 16 15 19 25 19 30 32 27 13 27 25 17 15 13 11 9 10 11 11 16 15 17 17 20 17 17 18 20 23
22 13 12 14 20 9 5 10 13 7 6 6 5 13 13 15 20 23 23 18 17 16 14 16 30 8 8 9 15 21 16 10 7 9 9 8 9 9 9 13 16 13 12 15 18 22 25 25 26
26 21 12 12 17 9 5 5 2 7 4 4 7 8 10 11 16 22 26 20 14 14 7 6 12 12 10 13 14 15 11 12 11 8 4 5 7 10 13 11 8 13 16 20 24 26 27 29 30
19 16 15 9 8 13 3 1 4 2 4 3 3 4 7 1 5 15 23 5 2 5 17 14 13 15 17 14 13 13 11 8 7 7 3 7 10 9 8 10 13 16 21 24 26 30 32 34 34
22 17 15 12 9 7 1 1 3 4 4 2 1 2 2 2 6 7 11 10 12 14 13 13 11 11 11 11 8 6 6 3 3 4 8 7 3 4 8 12 17 22 25 29 32 33 35 37 40
20 20 12 12 8 3 2 6 9 4 7 7 7 3 3 4 12 12 10 10 12 14 13 12 9 8 6 4 3 3 4 7 4 7 6 1 5 9 14 19 23 27 29 32 35 37 38 40 41
20 9 12 5 4 3 5 8 8 4 6 7 7 5 4 6 9 11 11 11 10 8 7 5 3 1 1 1 2 3 4 7 7 5 2 5 9 14 19 23 27 30 33 36 38 39 41 42 44
19 10 11 14 6 8 10 9 5 5 4 5 8 4 4 7 9 11 12 12 11 10 7 4 2 1 2 1 1 3 5 6 4 3 5 9 15 19 24 27 31 33 36 38 40 42 44 45 47
20 17 15 17 18 12 10 6 8 8 5 7 5 7 3 3 7 9 11 10 8 8 5 4 3 2 4 4 3 2 1 3 4 7 12 16 21 24 28 31 35 37 39 42 44 46 46 47 47
21 19 16 11 14 12 9 3 2 4 4 6 4 8 9 5 5 5 8 9 8 7 7 5 3 2 4 1 1 2 2 5 8 13 18 22 25 28 32 35 39 42 44 46 47 48 49 48 46
19 19 16 13 9 9 6 4 3 1 5 4 5 9 10 4 4 4 5 5 5 6 6 4 2 2 2 3 4 4 6 10 14 20 23 27 31 34 37 40 43 45 48 49 51 51 50 48 46
21 20 19 16 11 8 7 7 5 7 6 3 3 2 3 5 4 2 1 1 3 4 4 4 3 3 4 6 7 9 11 17 22 26 30 33 37 40 43 46 48 49 50 51 50 48 51 49 49
17 14 17 17 13 11 8 9 5 4 4 3 6 4 5 6 6 5 3 2 7 7 7 6 5 7 7 9 10 15 20 23 28 33 36 38 40 44 47 50 51 51 51 50 51 52 53 52 54
17 19 19 18 14 14 13 13 9 7 1 4 7 1 6 12 11 8 6 9 11 9 8 9 7 7 9 11 14 21 23 28 33 38 39 41 44 48 51 53 53 53 51 53 51 55 56 56 58
17 17 16 16 12 16 14 15 11 9 6 6 7 5 5 9 9 12 12 10 12 10 9 7 8 10 13 16 20 25 29 34 38 41 42 44 49 53 52 51 51 48 50 58 57 57 57 60 62
16 14 13 18 19 19 20 24 18 14 12 9 11 7 7 10 8 10 11 13 10 7 8 10 13 15 16 19 24 29 33 37 39 44 45 47 54 54 51 49 52 51 54 61 60 59 62 64 65
18 18 18 18 20 22 23 23 16 18 13 7 15 11 9 13 12 10 10 11 11 9 10 15 16 18 22 26 31 35 38 42 43 46 48 52 56 53 53 50 51 54 62 62 61 64 65 65 66
22 19 16 19 23 25 25 21 14 17 19 17 16 15 12 9 8 4 5 6 9 10 14 18 19 22 27 32 36 40 42 40 43 48 53 55 54 53 54 57 53 56 60 63 65 66 66 69 72
21 18 18 19 22 22 20 22 19 15 13 18 25 15 12 10 8 7 7 10 12 13 16 21 25 30 34 37 41 40 40 42 48 50 52 51 51 53 56 57 57 59 63 64 65 66 70 73 77
19 21 22 25 28 28 24 18 17 18 16 16 17 17 14 13 12 12 14 15 16 18 21 25 29 35 38 39 40 42 43 43 45 51 53 52 54 58 58 57 60 63 63 66 68 71 73 75 78
19 27 27 27 26 24 23 15 16 21 19 19 20 21 17 14 15 17 18 19 20 24 27 31 35 36 39 39 41 41 42 46 51 52 53 53 59 57 58 60 62 61 64 69 73 76 78 80 81

GFSSGP_500_spd_027.txt.gz
Wind_Speed
20 18 19 21 22 27 28 28 28 31 36 32 30 34 31 21 26 22 19 19 17 18 21 21 23 25 26 26 25 22 21 21 21 19 23 22 19 21 15 15 13 11 14 16 15 15 14 13 14
20 17 17 18 19 22 23 23 24 27 30 32 25 30 32 30 25 24 22 22 22 24 27 28 28 28 28 27 25 24 23 23 24 24 22 24 25 20 20 16 14 13 14 17 18 17 15 14 16
19 16 14 15 17 18 18 15 20 24 25 29 27 25 25 33 28 24 25 25 26 28 29 32 31 30 27 26 28 28 28 25 26 25 22 26 25 23 20 18 16 14 16 19 20 17 18 16 18
16 14 13 12 12 15 19 19 19 25 25 27 28 27 30 18 26 28 27 27 26 27 28 29 29 27 28 26 29 30 29 24 25 22 24 30 26 26 20 21 17 16 17 20 18 18 17 16 19
16 12 10 9 10 13 18 19 22 25 29 26 30 30 28 27 26 30 31 31 30 29 25 25 25 22 24 31 28 29 22 23 19 22 27 29 27 26 22 21 20 21 18 18 14 16 16 17 19
13 10 6 4 10 11 15 20 21 24 27 29 28 29 29 29 28 27 30 32 31 26 26 24 21 24 31 36 33 24 23 22 22 24 29 27 30 21 22 25 23 10 6 10 12 12 15 17 21
8 4 3 6 10 12 18 22 23 23 25 28 28 28 28 28 29 27 29 29 21 25 28 28 26 30 37 48 34 34 29 23 31 28 26 32 24 18 20 16 7 6 10 10 9 14 19 21 23
3 4 11 10 13 13 16 21 21 18 20 24 26 27 27 31 27 26 24 27 23 22 26 30 28 30 32 32 46 40 41 28 38 39 25 26 13 11 9 6 6 7 5 9 12 17 20 18 15
6 12 13 10 4 10 11 13 21 21 19 23 22 24 28 26 24 23 20 18 22 19 25 26 39 31 41 42 43 51 45 36 37 36 27 26 13 13 9 8 6 7 10 10 14 13 8 11 15
10 10 11 10 7 6 4 8 9 11 14 19 21 19 22 26 23 28 28 24 24 25 25 29 30 30 35 34 40 40 44 37 38 26 20 15 14 13 12 12 13 13 13 13 7 7 10 14 18
11 9 9 7 6 6 4 5 7 8 9 14 20 20 23 23 20 20 22 19 24 31 26 23 23 20 13 22 34 22 25 32 30 16 14 14 14 11 9 9 13 14 10 7 6 11 14 17 20
12 10 8 5 1 5 6 7 9 1 5 14 21 20 16 15 19 21 18 16 23 21 23 17 12 12 8 6 26 13 16 13 24 21 17 13 12 11 13 16 12 8 7 7 12 15 19 22 25
9 7 9 7 5 3 9 10 5 7 8 5 13 13 12 12 12 14 11 19 24 11 19 14 17 15 15 16 16 22 23 21 17 12 12 11 11 12 13 10 9 7 9 12 16 20 24 27 31
11 6 6 3 7 10 11 2 5 6 5 3 5 3 2 3 13 13 12 24 17 21 25 23 23 25 23 18 15 14 12 10 9 9 10 9 11 12 10 8 9 10 13 17 21 25 29 33 35
10 7 9 4 5 7 6 7 6 4 4 4 9 12 12 12 11 15 16 20 21 20 17 15 14 15 12 10 9 10 11 13 15 14 16 14 14 13 10 8 11 15 18 22 26 30 33 37 39
11 11 12 2 3 6 5 3 5 4 3 5 9 9 12 14 16 20 20 19 19 16 15 13 11 11 10 8 9 11 12 15 16 16 13 15 16 10 8 11 15 19 22 26 30 34 37 40 42
12 13 6 7 5 0 2 1 1 3 4 6 9 8 9 9 11 15 16 17 18 15 12 11 8 7 7 8 11 12 13 15 17 17 14 13 11 10 12 16 20 24 26 29 33 37 41 43 43
11 14 9 7 8 5 4 4 2 2 7 6 6 9 9 10 11 13 14 12 12 12 10 9 10 10 10 10 11 12 12 15 15 13 12 11 12 14 16 21 24 27 29 33 38 42 44 44 44
12 13 16 13 9 10 8 5 4 4 9 6 3 8 9 10 9 11 12 12 11 11 12 12 12 11 10 10 11 13 12 13 13 10 10 13 16 18 21 25 28 30 34 38 42 46 46 45 41
10 10 12 19 15 13 12 11 10 7 5 5 2 7 7 9 9 10 11 12 11 10 11 12 14 12 10 10 14 14 14 13 12 14 15 17 21 23 27 30 31 34 37 41 43 45 46 45 46
7 13 14 15 10 10 14 12 11 8 5 1 5 2 5 6 10 12 12 10 8 6 5 7 9 10 10 10 11 15 15 15 14 16 18 21 25 29 31 32 35 38 42 42 46 49 49 48 52
11 12 16 16 11 12 14 11 10 11 10 7 6 5 5 9 10 10 11 12 10 8 6 8 11 14 14 16 16 17 16 16 18 19 23 26 30 31 33 36 37 41 44 47 49 49 50 50 56
12 13 18 18 15 10 6 4 7 15 14 11 12 12 11 13 14 14 14 14 13 15 13 11 11 16 17 17 18 19 20 21 23 22 26 29 32 35 38 39 41 44 47 52 48 51 56 59 63
14 19 20 18 16 14 12 10 8 11 13 11 16 17 18 18 21 20 21 21 19 19 17 17 16 17 17 16 18 20 24 24 24 25 27 30 32 35 38 39 42 49 52 53 52 56 55 60 65
23 23 22 20 20 20 17 15 13 8 11 12 12 13 20 20 23 22 25 25 25 23 21 21 20 18 18 17 22 25 29 24 25 25 30 31 35 34 37 38 46 50 52 56 58 63 62 65 66
23 21 21 23 22 21 19 18 12 11 16 16 18 14 17 18 17 17 24 29 30 29 28 25 21 19 19 20 22 22 24 28 28 29 30 33 35 36 36 44 52 56 57 52 56 66 65 67 65
24 24 22 21 17 17 19 18 19 17 19 13 11 20 20 17 15 17 24 27 26 27 28 25 22 18 20 20 22 25 28 30 29 30 33 36 37 38 44 48 52 56 44 63 66 66 67 66 64
28 26 24 21 21 23 21 20 17 15 13 16 16 14 23 21 19 16 16 18 17 16 18 20 19 21 22 24 27 27 30 30 30 33 34 37 38 41 47 50 56 59 62 66 68 67 68 66 65
30 30 26 24 26 24 21 21 15 16 17 18 22 21 20 21 22 20 18 17 17 18 19 21 21 23 25 29 31 30 31 33 34 36 40 38 38 45 53 56 58 63 65 64 64 64 64 68 69
31 30 30 32 27 28 27 22 16 15 13 16 20 24 23 23 23 22 20 20 23 21 24 25 26 27 29 30 32 34 34 37 40 42 40 42 43 49 57 57 61 63 64 59 61 65 67 68 71

GFSSGP_500_spd_033.txt.gz
Wind_Speed
47 37 20 15 15 15 14 15 19 22 25 39 42 18 25 36 42 29 26 43 44 40 35 29 28 30 27 29 29 29 28 24 22 17 16 18 18 18 17 18 15 15 14 12 13 12 13 11 11
39 29 15 13 11 8 10 14 19 15 25 26 30 37 37 40 44 39 28 33 36 44 31 30 28 27 29 29 30 30 27 23 20 15 19 20 22 21 20 18 15 15 13 13 14 14 14 13 12
34 22 11 9 9 8 12 14 25 31 21 22 28 34 37 38 40 39 32 30 32 28 26 31 31 32 29 29 30 30 27 24 19 20 22 24 23 21 20 19 16 16 15 15 15 15 15 12 12
29 17 9 8 7 9 19 11 27 17 18 22 22 30 40 43 36 40 31 28 27 26 29 30 26 22 22 30 32 30 28 24 22 21 23 24 24 22 22 19 20 18 17 16 16 15 14 10 12
24 10 7 8 9 16 19 29 17 16 17 21 25 29 36 45 49 46 22 30 37 27 22 18 21 25 28 30 30 30 28 28 23 20 21 21 22 23 21 19 20 23 19 16 13 14 10 9 10
18 7 7 7 10 11 13 18 15 16 19 23 24 33 20 33 35 34 20 23 32 18 20 24 27 23 22 22 22 23 29 37 30 23 20 19 20 21 20 22 23 19 15 14 10 8 8 9 9
10 1 4 3 7 11 10 13 14 17 18 20 19 26 18 22 26 21 18 16 11 14 22 24 26 24 23 24 21 23 28 28 31 26 21 20 23 27 24 22 20 18 14 9 7 9 8 9 12
5 3 2 4 1 10 16 10 14 18 21 17 25 27 25 20 19 22 21 19 16 14 21 20 24 26 28 28 31 30 32 34 31 27 22 28 30 32 29 26 18 13 12 10 9 9 10 12 14
5 12 4 7 8 14 10 10 16 17 22 23 24 26 24 21 22 24 22 21 23 19 21 23 24 25 24 25 31 33 39 35 52 33 28 27 38 29 29 23 15 14 12 10 8 8 9 11 12
2 6 5 18 8 6 7 12 15 13 18 23 25 24 23 23 24 27 22 23 25 24 28 23 25 27 29 26 35 41 39 30 30 25 30 35 35 38 27 19 16 13 12 10 8 8 9 11 11
1 10 13 9 10 8 10 14 12 16 20 5 21 22 20 22 22 27 26 26 28 28 25 27 28 25 21 28 26 37 34 29 30 36 39 45 37 30 24 16 14 12 10 9 8 12 11 11 13
4 6 7 7 9 12 13 13 16 18 17 18 16 17 18 23 24 21 24 27 30 31 30 29 32 31 30 23 24 29 38 38 41 21 35 39 29 23 17 18 12 11 10 10 11 11 12 14 17
4 6 4 2 5 9 13 15 15 6 9 10 13 14 18 21 22 22 26 30 32 30 30 26 25 29 30 28 37 34 37 30 21 30 26 29 23 17 16 13 12 10 10 12 12 12 13 16 20
9 8 6 5 3 1 13 13 10 10 10 10 8 20 22 21 26 22 22 27 29 28 25 22 24 26 28 30 31 31 25 18 19 24 27 21 19 16 14 13 14 13 13 12 13 13 17 20 23
11 8 3 4 7 6 11 9 12 6 7 11 8 4 14 25 13 15 20 22 26 27 29 31 31 26 24 17 14 11 12 14 20 21 19 17 16 13 11 10 12 12 13 14 14 17 21 25 28
11 2 11 10 12 11 8 8 13 11 6 4 5 2 2 3 3 8 19 23 15 17 15 15 15 15 15 13 14 14 15 16 14 14 12 12 10 8 12 13 13 13 15 16 17 22 25 28 29
8 8 16 12 11 8 10 1 14 17 11 3 3 2 1 3 7 9 12 20 13 12 11 11 11 12 10 8 9 8 6 6 8 10 10 10 9 10 12 13 14 15 16 19 22 26 29 30 31
12 11 10 15 11 3 3 9 18 17 8 8 3 1 2 2 4 7 10 11 13 11 9 8 7 7 5 3 3 4 4 5 8 10 12 9 9 13 16 15 17 17 20 23 26 30 33 32 32
18 19 10 15 5 9 6 10 5 18 8 6 5 3 1 3 3 5 5 7 6 6 6 5 4 4 5 6 7 8 10 11 13 15 15 12 13 15 16 17 18 22 25 28 31 36 35 30 33
19 18 12 15 18 12 4 8 8 17 8 7 7 2 1 1 3 5 6 5 5 5 5 5 4 3 5 6 7 9 11 13 15 15 14 17 18 17 17 18 23 26 31 35 37 39 38 36 36
13 11 19 19 11 15 14 14 18 17 9 10 7 7 4 3 5 7 8 9 8 7 6 5 5 5 6 8 9 9 11 12 14 16 17 18 18 19 20 22 27 28 33 37 38 37 37 39 39
8 10 17 24 19 12 8 13 15 15 13 11 9 7 6 6 7 6 7 7 8 9 8 8 8 9 9 9 11 11 12 14 17 18 20 20 23 25 25 27 30 31 34 34 34 37 39 43 46
13 13 19 12 12 14 11 11 13 11 18 18 13 11 8 8 9 9 10 11 11 12 13 13 13 13 13 13 14 15 15 17 18 22 24 25 28 29 32 32 32 33 36 38 38 39 41 43 44
16 13 17 11 8 14 12 11 15 11 5 13 13 16 12 11 11 13 16 16 16 18 18 18 18 19 18 18 17 18 18 17 16 18 22 28 32 35 38 36 33 36 41 41 47 38 42 49 45
17 15 10 13 14 13 14 19 12 8 12 21 15 16 19 17 15 17 17 16 16 17 21 22 23 22 22 22 24 22 20 19 19 23 23 29 29 32 35 39 38 41 35 40 40 44 48 45 55
17 17 17 18 19 10 19 20 13 14 21 20 19 19 20 22 21 19 18 20 20 20 22 23 24 26 27 21 29 27 23 22 24 27 29 33 36 40 35 37 33 34 38 41 44 49 49 48 51
21 22 16 20 25 23 9 12 21 14 18 18 21 23 24 26 27 24 21 20 21 23 24 25 27 26 26 27 33 30 23 26 27 30 35 36 39 40 34 33 35 38 42 43 43 46 50 52 51
27 22 24 28 21 26 19 16 14 16 12 18 18 20 23 26 25 26 23 24 23 24 26 26 28 28 28 27 27 24 26 27 31 35 37 40 38 34 35 35 39 41 42 42 37 46 49 59 67
23 27 26 22 23 22 17 13 21 20 16 17 20 23 23 24 26 23 28 30 26 26 26 26 25 26 25 24 24 22 24 30 35 37 40 41 42 40 39 40 43 45 46 46 50 56 60 64 68
21 20 22 29 24 26 27 23 14 21 22 23 21 23 23 23 27 27 26 28 30 30 31 29 27 27 27 27 28 28 31 34 38 38 42 44 43 42 42 44 45 47 49 50 52 56 57 64 66

GFSSGP_500_spd_039.txt.gz
Wind_Speed
40 43 47 40 33 21 8 8 19 4 12 25 28 30 33 37 43 44 50 52 50 39 19 27 29 30 36 40 36 33 32 31 29 28 28 27 27 24 24 20 19 19 16 16 15 12 13 13 13
39 45 39 28 21 2 5 1 5 16 21 23 27 30 35 38 36 37 33 41 54 49 42 20 31 33 37 35 33 34 31 31 30 30 28 24 24 21 18 19 21 19 19 16 13 12 12 13 13
40 43 24 18 10 7 10 16 22 17 24 25 31 23 28 29 29 34 36 39 53 56 56 51 31 36 30 39 37 34 32 33 33 29 27 24 23 21 22 21 22 22 19 15 13 15 13 14 13
41 31 20 7 14 10 15 18 27 18 25 25 28 33 31 34 37 39 48 41 47 64 50 44 47 40 44 41 38 36 35 34 35 31 24 18 21 23 23 26 23 23 18 15 17 17 15 14 13
40 21 14 15 15 18 15 22 26 35 32 25 31 27 35 45 33 38 46 40 43 28 28 35 43 46 46 47 49 43 37 39 34 28 25 22 21 22 22 24 24 22 19 16 15 14 15 13 13
27 16 17 4 12 19 23 26 28 35 33 25 23 28 28 22 21 20 33 36 32 32 33 28 42 46 45 45 36 38 38 35 30 25 25 26 21 23 20 22 21 19 19 18 14 12 14 13 12
21 11 10 6 7 19 20 26 31 23 25 26 19 23 31 29 29 18 18 23 21 26 32 38 38 49 42 34 32 31 19 20 25 27 24 22 26 24 27 25 21 19 13 13 13 12 12 11 8
17 11 1 1 3 19 26 19 16 20 22 23 28 24 39 21 26 16 8 16 18 21 27 28 38 31 33 22 24 16 16 20 23 24 29 25 23 22 24 27 21 20 18 17 15 12 11 9 6
17 7 3 3 13 19 24 26 18 21 22 31 21 25 21 21 12 10 12 16 17 18 16 2 36 27 22 22 23 28 23 20 24 24 25 27 25 27 32 22 21 24 24 22 15 13 11 9 8
16 8 11 2 16 21 23 18 19 25 20 24 25 27 23 25 20 17 16 14 13 16 13 11 9 14 17 33 26 17 23 22 25 19 23 34 36 29 30 31 26 27 25 25 21 14 12 10 7
12 10 8 6 16 10 16 14 17 20 17 22 25 25 23 18 21 19 15 14 12 14 8 5 8 11 4 11 14 20 18 17 18 24 27 13 22 21 23 23 31 24 20 20 17 15 14 10 9
6 7 9 8 13 10 12 11 19 20 13 16 21 13 6 12 16 15 15 15 15 14 13 12 15 10 13 16 19 14 20 15 19 27 17 24 15 16 20 29 24 19 20 21 17 16 13 10 7
9 8 8 6 8 7 8 14 11 13 13 13 16 9 8 11 12 11 11 14 14 14 14 16 17 16 16 14 14 18 19 20 22 22 20 19 16 17 18 17 19 22 24 19 16 15 13 10 10
13 6 5 8 8 5 12 17 18 17 21 12 15 17 10 7 6 6 9 13 16 16 16 19 18 19 17 16 18 21 22 25 24 20 19 17 18 10 12 11 17 24 18 16 16 15 12 10 10
10 8 8 8 9 24 20 23 15 20 18 17 15 14 12 8 4 7 9 15 16 16 16 17 13 16 15 14 17 19 23 21 27 21 19 12 12 14 13 21 20 14 14 16 15 13 12 12 12
8 9 7 4 13 16 19 9 23 28 17 13 14 13 14 13 13 9 6 7 8 10 12 12 11 15 15 15 13 20 24 22 17 22 15 11 13 22 19 15 11 13 15 15 14 14 13 14 16
12 9 9 6 14 17 13 12 15 9 26 19 14 14 12 12 16 15 9 9 16 16 13 10 10 6 5 8 8 12 19 14 13 15 19 22 20 18 16 11 14 16 17 16 16 16 16 19 19
12 13 6 13 11 13 16 14 12 18 15 15 10 8 11 11 11 12 14 17 19 16 15 14 15 14 13 14 12 14 16 14 10 14 13 14 15 13 10 13 16 16 16 18 18 19 18 22 24
12 9 11 12 16 23 23 14 15 15 17 18 9 11 10 12 7 9 8 10 10 11 9 8 8 8 7 11 10 9 12 9 9 11 11 12 12 11 12 14 17 18 20 20 19 21 23 26 26
10 10 11 10 15 19 17 18 16 16 9 14 11 13 13 9 7 3 3 4 4 6 6 6 7 8 9 5 6 7 8 5 2 3 3 6 7 7 8 12 18 20 20 20 23 26 28 30 30
10 10 12 16 20 17 9 14 16 17 16 8 12 10 10 7 4 4 3 3 5 5 6 8 10 10 9 8 7 6 3 2 1 4 4 7 6 8 10 12 16 19 20 24 26 30 33 37 37
11 12 14 29 23 26 15 19 16 22 15 10 8 11 2 3 3 3 2 2 3 3 3 4 5 5 3 3 4 4 4 3 4 6 6 7 7 8 11 14 15 19 24 30 34 37 39 40 42
10 17 15 19 31 31 24 18 11 18 14 15 13 10 8 3 3 5 3 2 3 1 2 3 1 2 2 3 3 3 4 5 7 10 11 11 10 12 14 16 19 20 22 29 31 34 41 35 38
19 20 17 20 22 28 21 24 12 15 17 17 18 18 9 8 5 2 2 2 3 4 5 6 6 6 7 7 7 7 9 8 9 10 13 16 14 12 14 13 15 17 23 27 29 28 28 28 32
24 24 22 21 22 17 17 27 14 13 20 23 26 24 13 2 8 5 3 4 5 9 10 10 10 11 8 9 10 11 13 12 12 14 14 17 22 17 21 18 18 20 20 25 26 26 28 33 37
25 24 25 18 17 12 21 20 16 13 16 24 21 16 17 15 14 12 8 10 12 13 14 14 14 13 13 11 12 15 16 16 17 17 19 23 30 25 23 17 21 24 24 27 31 32 34 37 40
24 28 15 18 24 26 24 23 27 21 16 22 21 23 20 19 19 18 13 12 12 18 20 17 19 20 19 16 12 14 20 22 17 19 17 22 29 27 24 20 21 26 28 32 34 36 38 39 42
26 23 26 26 28 28 28 22 18 21 17 25 21 26 28 23 19 19 21 17 14 15 17 16 21 20 26 22 19 18 18 21 22 22 18 20 21 25 24 25 25 29 33 36 38 39 40 42 45
31 32 32 33 33 30 30 24 21 21 21 22 26 30 21 20 19 20 20 24 25 23 20 20 27 33 26 17 26 27 26 27 26 25 38 30 22 24 28 26 31 35 36 39 40 41 43 46 49
33 32 33 38 30 30 33 30 28 21 22 29 30 25 23 18 16 18 21 19 22 26 26 27 29 26 23 27 28 26 31 39 36 22 26 30 27 25 31 30 35 38 40 41 42 44 47 50 52

GFSSGP_500_spd_042.txt.gz
Wind_Speed
34 34 35 39 29 25 12 2 7 6 7 11 16 14 17 21 25 33 38 39 40 43 46 52 34 35 41 35 32 26 30 33 30 30 30 30 29 27 24 24 23 25 24 24 22 21 17 15 13
32 33 37 36 21 14 7 8 9 9 17 23 20 22 20 23 29 29 34 34 37 42 47 52 33 27 31 34 33 34 36 32 31 30 29 31 30 28 25 20 20 21 23 22 20 19 13 14 14
30 33 36 23 19 15 9 12 16 15 16 24 27 25 19 23 33 38 36 34 34 41 40 48 41 39 31 35 35 42 35 31 33 31 32 31 29 26 24 21 20 21 22 24 22 18 14 13 13
29 33 25 16 7 7 6 10 7 19 26 26 29 35 23 23 28 31 32 35 33 36 43 38 46 47 32 38 50 54 36 35 35 33 32 30 26 21 22 23 24 23 23 23 22 19 17 13 14
29 31 17 19 15 10 10 14 18 21 29 33 26 31 34 30 27 33 36 39 39 39 39 42 36 33 48 40 44 34 39 40 37 35 33 30 24 26 20 22 21 23 23 22 22 21 16 16 16
28 27 16 19 22 17 8 13 19 24 27 24 27 25 30 31 30 29 36 41 40 42 37 40 46 34 41 32 45 35 38 38 40 39 34 29 25 24 25 24 21 19 20 22 24 20 19 16 13
27 20 17 16 18 15 10 13 15 15 19 16 24 30 23 24 26 29 28 30 21 25 24 30 35 53 28 42 42 54 45 42 41 42 36 26 26 26 26 22 25 27 24 21 23 21 19 15 13
25 15 14 17 15 16 14 15 7 9 14 19 22 24 17 20 21 25 34 24 16 16 21 23 33 42 36 35 56 51 41 49 48 40 30 25 25 24 25 20 20 26 25 22 16 18 16 14 18
23 13 15 17 11 11 13 17 13 15 24 23 23 22 18 16 11 5 17 20 12 16 19 14 20 37 27 42 38 37 38 45 38 26 21 23 21 22 20 21 24 31 26 21 23 19 17 18 18
20 13 15 17 11 10 13 13 16 23 24 24 24 26 18 12 8 9 12 12 15 17 16 16 18 39 46 28 26 35 29 20 16 20 20 20 17 22 32 25 27 17 23 24 28 23 20 18 17
20 13 11 15 11 9 12 11 16 20 16 20 23 21 12 3 4 10 9 10 15 18 12 7 19 14 21 17 17 20 20 21 20 24 13 15 7 12 21 22 16 15 22 16 18 23 19 18 17
19 13 7 10 6 9 11 13 18 17 25 21 20 18 10 4 1 5 6 9 15 18 9 7 8 3 2 1 5 11 16 23 14 23 12 16 13 11 15 15 20 17 17 15 21 22 20 17 15
16 15 8 4 7 5 7 9 18 16 22 23 18 16 13 5 2 5 9 10 14 14 11 8 7 6 5 9 9 12 17 21 17 10 15 18 18 17 16 13 17 19 15 18 22 22 20 19 16
15 8 9 6 5 6 11 7 12 18 21 21 20 16 14 6 4 1 5 7 11 13 14 12 9 12 13 11 13 13 17 18 18 19 21 20 20 19 19 16 16 18 15 21 24 21 20 18 16
12 7 7 6 7 8 8 12 15 13 19 18 20 16 13 9 3 1 4 9 13 13 13 14 13 16 13 11 11 14 16 21 24 19 21 20 19 23 18 15 18 16 21 24 19 20 18 18 16
9 8 7 11 14 10 7 12 9 8 16 16 17 15 14 14 11 9 1 2 8 12 17 17 16 18 12 13 14 18 19 22 21 25 24 17 18 21 18 16 17 24 23 19 19 19 20 19 19
9 10 10 13 10 6 9 13 5 8 8 15 12 11 12 13 16 13 7 13 11 13 11 11 11 10 14 16 19 19 15 19 21 18 20 16 19 19 19 21 22 19 18 18 18 22 21 20 20
11 10 12 19 10 8 8 13 9 8 10 10 10 9 9 9 9 9 8 13 16 17 18 19 19 16 14 13 9 10 12 11 9 10 14 17 19 19 17 16 17 18 19 19 21 21 21 21 21
14 12 15 14 9 15 11 13 19 13 6 8 6 5 3 5 5 6 5 8 10 11 13 13 13 12 12 13 13 11 9 8 9 9 8 11 16 15 15 17 21 21 20 21 20 20 21 23 24
15 15 14 13 12 19 20 13 17 18 0 3 3 6 1 4 2 3 4 5 6 7 8 10 11 10 9 11 11 11 8 7 10 11 10 13 12 16 19 20 17 18 19 19 18 21 26 27 27
17 15 14 13 16 22 24 13 12 16 5 7 3 8 2 4 3 2 3 7 9 10 11 10 11 13 12 11 12 11 8 7 8 6 8 7 13 17 16 16 17 19 20 20 23 26 28 28 31
19 20 16 18 21 26 24 25 16 16 11 6 6 6 5 1 3 4 2 5 9 9 10 9 9 10 9 9 8 8 8 7 6 3 3 6 8 13 14 16 19 20 19 20 23 24 26 30 31
18 25 19 17 23 24 23 29 15 21 16 8 9 8 7 1 2 2 4 3 1 2 4 5 5 4 4 4 4 5 6 4 3 3 5 8 10 12 17 19 22 21 18 19 20 23 22 25 26
23 24 23 22 24 22 16 26 17 22 19 12 6 4 6 3 9 4 2 3 1 1 3 2 2 2 3 4 4 3 4 5 8 9 8 10 10 12 16 19 21 19 21 20 19 26 31 26 25
25 27 25 26 27 19 17 24 13 23 25 18 11 10 9 7 6 5 5 5 4 4 5 6 8 8 9 9 8 8 9 10 13 11 11 12 13 14 21 24 25 19 21 19 20 24 24 27 31
28 27 28 28 25 20 24 25 15 21 24 22 14 10 7 10 7 11 9 11 12 11 6 8 11 14 13 13 13 12 13 14 16 17 18 16 20 25 26 27 31 29 24 21 20 24 25 30 34
27 33 25 30 29 28 27 25 17 22 22 23 22 9 14 14 10 7 10 12 14 10 12 14 15 18 18 16 19 20 21 16 18 20 20 22 23 16 25 22 30 28 22 24 21 24 28 33 36
35 27 31 36 34 31 27 24 23 24 19 28 26 17 13 10 11 12 12 11 10 11 13 17 17 18 17 19 20 25 25 24 22 23 26 27 29 24 26 19 24 27 21 25 23 28 33 35 36
38 36 35 36 39 35 29 21 21 25 18 20 27 26 16 20 14 14 15 14 13 14 14 15 19 21 24 23 26 26 31 32 35 34 36 36 35 33 37 28 22 22 24 26 29 33 34 36 38
39 38 36 40 39 36 32 25 23 26 25 24 28 24 19 25 15 20 19 21 19 18 17 16 17 20 24 27 31 30 32 34 36 38 44 29 47 40 31 22 23 28 29 29 33 35 37 39 40

GFSSGP_500_spd_045.txt.gz
Wind_Speed
28 26 28 30 33 32 29 27 27 28 19 19 17 11 15 14 21 26 29 33 33 36 36 37 35 42 45 44 42 34 27 24 19 22 21 23 22 22 25 27 26 26 24 22 24 22 20 18 18
22 25 28 31 30 27 24 24 24 20 17 17 18 15 16 18 21 25 26 26 30 28 32 31 34 40 43 28 39 41 44 28 21 21 20 23 23 26 27 26 25 23 22 22 22 23 21 18 16
20 26 28 30 30 22 23 13 17 19 16 15 21 23 25 22 24 22 32 32 32 28 31 31 33 37 40 45 33 38 44 39 24 25 21 28 25 26 25 25 24 24 21 20 21 24 23 20 19
21 26 27 29 26 24 23 19 12 14 17 18 18 20 25 26 22 21 28 30 32 32 33 32 35 36 38 38 38 36 35 41 28 28 27 30 27 25 25 25 25 23 21 21 25 23 23 21 20
20 25 26 25 23 23 23 16 7 9 13 18 19 18 25 24 26 28 29 34 37 33 33 33 30 31 37 39 40 35 32 33 31 29 31 30 27 26 26 22 22 20 20 21 23 22 22 21 22
21 24 25 25 19 21 20 13 9 13 13 17 21 20 24 24 30 30 30 30 29 33 35 35 37 35 39 34 34 39 29 46 36 31 33 31 30 27 27 27 23 23 22 21 21 22 22 23 22
20 24 23 20 18 20 20 10 12 14 17 19 20 25 27 27 23 31 33 30 26 23 28 34 35 38 29 26 37 40 35 45 45 39 35 32 30 29 28 27 24 22 23 21 23 22 24 26 23
20 23 22 18 17 19 16 12 12 13 17 23 22 23 24 25 17 19 27 30 24 20 21 21 24 29 30 34 39 39 43 40 44 38 34 31 30 30 30 29 25 26 18 21 23 21 28 27 24
19 22 18 14 16 15 12 9 11 19 23 21 21 22 26 24 17 14 10 19 24 21 19 21 23 24 26 28 31 40 47 36 32 36 35 32 28 31 29 25 21 21 18 21 18 20 24 24 20
17 21 17 13 11 11 8 9 16 18 21 21 20 23 19 16 13 10 8 12 13 12 10 16 22 22 23 27 26 41 37 38 40 34 31 30 30 31 24 27 27 21 21 20 16 20 24 24 19
15 18 18 13 9 9 5 6 11 10 20 23 21 21 11 10 8 11 10 9 9 10 13 10 13 15 17 30 31 37 31 32 31 34 34 28 30 26 28 26 25 25 23 19 19 18 22 24 21
15 18 16 13 9 4 3 6 12 13 20 20 16 16 15 4 3 6 10 12 13 10 10 6 10 10 16 25 25 18 25 30 21 21 23 21 21 23 18 17 17 19 19 21 17 18 22 26 27
14 16 14 11 10 5 4 8 14 10 17 17 16 14 13 5 2 2 6 8 8 8 9 8 9 13 17 16 16 16 19 26 26 22 25 23 22 26 22 17 17 24 22 20 19 21 27 27 26
14 14 14 13 10 7 4 5 12 10 13 13 16 17 11 6 3 2 5 7 7 9 12 11 8 7 9 11 7 12 15 19 28 22 24 27 23 24 25 19 20 24 21 19 18 22 29 27 27
14 15 14 13 13 7 6 4 6 10 8 14 12 15 13 8 4 2 4 7 9 10 11 14 12 14 15 15 17 17 19 16 25 28 29 24 20 26 23 22 23 26 21 18 22 27 28 25 23
15 18 16 15 16 7 6 3 2 6 11 10 8 10 11 10 8 6 5 5 6 13 17 16 16 16 17 20 18 16 25 21 23 28 26 25 25 24 26 26 28 26 18 21 26 27 26 23 21
17 19 17 18 14 14 8 5 1 6 10 7 5 7 9 9 11 11 8 6 5 7 13 19 20 19 20 25 20 21 22 20 22 23 25 26 30 25 23 27 24 20 20 26 23 24 24 24 24
20 20 17 18 20 19 17 5 1 3 8 11 9 5 4 5 7 9 6 4 7 10 9 12 19 22 23 26 23 23 24 20 21 23 25 29 23 24 24 21 16 20 22 21 21 23 25 24 21
19 21 18 18 23 23 17 6 10 8 8 8 8 3 3 0 1 3 4 2 4 9 13 12 13 13 19 19 18 17 16 14 10 11 15 12 15 19 20 18 18 19 20 22 24 26 23 23 24
17 19 19 18 25 27 17 11 13 13 8 11 8 6 0 5 3 4 3 4 3 4 7 10 8 10 12 13 15 15 15 15 14 12 11 14 16 18 18 18 19 19 21 23 24 26 28 25 25
18 17 19 23 25 28 22 14 15 8 5 8 9 7 4 4 6 6 5 4 4 5 5 7 8 8 11 13 12 11 8 10 11 11 9 14 14 17 19 18 15 19 23 24 28 29 26 28 29
21 19 23 25 28 29 26 20 16 14 6 6 10 2 4 4 6 7 7 7 6 6 5 7 8 6 7 8 11 13 14 14 12 12 13 15 16 16 19 19 20 25 24 29 30 27 26 29 30
20 29 24 27 30 29 27 24 15 17 14 9 9 11 6 4 2 5 8 8 9 7 7 6 5 6 6 5 6 9 10 12 12 10 10 10 12 11 16 18 21 25 26 29 26 27 28 31 30
26 31 29 30 31 29 23 22 18 15 15 12 9 11 7 8 8 5 7 6 5 6 5 5 6 7 8 7 8 10 11 11 12 11 11 9 10 9 14 17 22 24 28 28 28 26 29 30 35
31 31 32 33 31 25 23 25 20 17 16 15 13 15 14 15 14 11 9 8 7 7 7 6 7 9 10 8 7 8 8 9 9 13 13 9 10 15 17 20 21 27 32 31 33 33 34 27 31
31 31 37 33 31 27 27 30 21 19 20 15 15 12 14 17 11 9 12 12 8 8 10 10 9 9 9 9 11 12 13 13 12 13 17 17 15 17 21 22 24 30 30 33 34 34 35 29 32
35 39 31 37 37 33 29 29 24 19 21 21 16 18 12 19 17 10 11 14 14 12 11 15 12 11 10 13 17 18 18 18 18 18 19 21 21 23 26 28 26 27 38 33 36 36 29 28 31
40 34 36 40 40 33 28 28 23 20 24 23 19 21 14 14 16 19 15 13 13 14 14 14 14 10 13 15 15 18 23 21 25 28 25 23 25 27 31 33 34 34 36 35 35 32 27 29 30
40 39 39 39 41 37 29 26 20 20 25 28 27 20 20 16 15 15 19 13 12 14 16 16 18 17 16 18 21 26 31 30 31 29 37 29 34 37 39 42 39 40 32 32 28 27 29 29 32
43 44 42 45 44 41 36 29 21 21 24 27 28 23 21 21 19 17 20 20 16 15 17 18 18 19 20 23 26 30 32 34 35 40 38 39 37 37 35 34 43 36 29 31 27 27 31 32 33

GFSSGP_500_spd_048.txt.gz
Wind_Speed
27 24 22 24 26 27 29 27 28 27 27 24 20 16 17 17 19 16 25 30 36 38 37 32 32 28 30 30 33 38 22 35 30 30 26 21 15 12 12 14 16 16 19 16 20 20 20 22 23
23 21 22 25 26 26 26 24 25 27 27 23 16 15 18 17 17 22 23 26 30 36 35 32 31 25 29 31 35 34 36 26 31 28 25 20 17 14 13 14 15 16 16 17 20 22 21 22 23
21 22 24 27 28 25 22 22 22 24 24 24 19 18 21 23 23 24 28 27 29 31 23 23 23 23 25 33 34 35 33 27 34 28 25 23 15 14 14 14 16 15 16 18 21 22 23 23 22
20 23 26 27 28 21 21 21 21 19 21 21 21 21 24 23 20 25 27 28 29 28 26 24 26 24 26 33 29 37 33 35 39 29 29 19 18 18 16 16 16 15 16 19 22 24 26 25 21
19 22 26 26 25 20 20 19 20 14 18 17 17 17 19 23 22 26 26 27 27 26 30 29 27 26 27 19 26 39 37 36 38 38 26 21 17 18 20 18 14 13 17 19 19 22 21 22 22
18 22 25 24 18 17 16 17 15 16 20 19 20 22 24 29 28 28 30 31 27 28 28 33 33 32 33 33 24 24 37 36 37 31 24 24 21 22 20 18 15 16 19 22 24 23 23 22 23
19 22 22 22 16 12 14 16 17 15 14 18 24 25 23 21 23 26 30 33 28 23 24 30 29 30 31 32 28 32 28 34 37 38 28 26 23 23 20 18 18 18 22 22 22 23 23 22 23
20 22 20 18 12 11 12 13 10 10 15 18 19 20 21 24 23 23 20 21 33 28 27 20 21 22 29 32 29 21 32 30 36 35 29 28 25 24 20 19 21 21 24 24 23 21 24 21 23
20 21 20 15 11 8 9 11 11 9 13 21 20 18 21 20 20 18 16 17 17 23 23 20 23 25 23 21 14 13 34 31 30 36 31 30 28 25 21 21 23 24 23 26 21 21 17 22 24
19 20 18 11 8 6 8 12 12 8 15 20 22 21 17 18 15 9 8 4 8 11 14 14 15 18 14 13 11 12 36 31 30 37 33 35 31 27 22 22 24 25 24 23 24 23 20 20 22
16 21 17 10 5 6 8 14 9 12 14 15 20 20 20 14 13 8 8 8 6 9 9 9 9 13 19 19 23 23 29 31 36 35 32 36 33 28 21 23 28 24 27 27 23 24 21 22 23
18 20 17 11 7 10 10 14 9 10 15 13 15 17 17 13 9 6 5 8 8 8 6 5 5 7 11 15 26 23 28 41 41 35 34 37 31 22 20 24 25 27 28 26 24 23 23 22 23
19 21 19 13 8 12 13 14 11 7 10 13 15 14 13 11 5 5 5 7 8 8 6 6 4 8 9 13 12 29 29 32 38 25 29 31 30 20 23 25 24 24 25 27 23 24 22 23 24
17 18 20 17 11 14 18 15 13 9 8 13 16 14 11 9 6 5 7 9 9 9 8 7 7 16 18 15 19 29 30 30 26 24 25 23 27 23 23 24 28 23 28 28 23 21 23 27 28
18 18 21 18 16 18 19 16 14 7 6 9 14 12 13 14 8 8 8 10 10 11 11 10 9 14 17 18 16 21 24 30 31 30 27 28 29 25 22 23 28 26 29 29 28 21 27 34 31
21 20 21 21 18 16 16 17 14 8 6 8 9 9 9 11 9 7 7 5 9 15 14 13 10 11 10 12 17 17 19 26 34 33 29 25 26 24 22 25 29 31 28 29 26 20 30 32 27
20 23 22 21 19 16 17 17 13 11 4 7 6 10 7 7 7 8 7 9 11 4 16 23 16 13 15 16 21 20 21 29 28 23 31 26 23 27 25 28 33 31 29 26 21 27 30 27 28
25 23 19 19 20 18 16 16 22 17 7 7 11 12 8 4 5 4 5 8 10 8 14 24 23 21 14 18 19 18 22 27 23 26 27 26 28 28 29 29 28 27 26 23 25 27 30 29 28
23 21 19 19 23 20 20 19 17 21 8 9 13 9 11 6 5 5 3 3 4 6 6 8 17 24 28 26 25 25 24 24 23 26 25 29 30 30 26 26 23 22 22 23 23 23 27 29 28
24 19 18 20 24 23 22 20 17 18 10 10 14 11 10 9 8 7 7 5 2 1 2 4 6 5 13 22 30 30 28 29 30 26 30 32 30 29 25 21 21 21 21 23 23 26 29 30 32
26 19 22 23 28 28 25 19 17 16 8 8 12 11 8 7 7 7 8 7 6 4 3 4 5 6 9 13 11 12 17 20 19 16 15 16 19 21 22 23 24 23 23 23 26 28 29 31 31
23 22 27 28 30 31 28 20 19 17 11 9 11 10 9 6 7 6 6 6 5 3 4 6 6 7 8 11 12 14 15 16 16 13 12 13 14 17 18 18 20 22 25 26 27 29 28 29 31
18 29 29 32 31 33 27 29 21 17 11 16 13 13 12 10 8 6 7 6 7 5 5 5 6 7 6 6 8 10 12 12 10 9 10 11 15 16 18 20 23 22 23 25 25 28 30 33 34
29 34 35 33 32 31 24 33 20 17 13 12 16 12 12 14 12 9 7 8 9 9 8 7 5 5 4 4 6 7 8 10 11 13 13 14 14 15 18 19 21 26 24 27 28 31 32 32 35
33 34 36 37 33 30 27 33 20 21 15 10 18 16 15 15 14 12 12 11 11 12 9 8 7 7 6 7 6 5 7 9 9 11 13 14 15 18 19 21 23 25 25 27 29 33 34 35 36
34 34 37 37 34 36 33 34 26 22 18 12 12 17 18 15 12 15 16 14 14 12 9 10 12 10 11 11 11 12 11 12 11 14 13 15 18 21 22 22 24 25 25 25 27 32 36 42 43
35 39 30 35 38 39 36 35 29 27 17 17 13 15 16 15 15 17 15 14 18 17 17 16 17 13 12 15 16 16 16 16 16 18 19 21 23 25 27 27 27 30 32 33 30 33 39 48 47
40 37 38 39 42 42 43 31 28 26 18 18 13 16 17 16 15 20 23 20 18 19 20 19 16 14 14 14 15 15 16 18 22 23 24 23 30 31 31 30 30 33 32 35 39 40 42 34 39
40 39 41 41 44 45 42 35 27 23 21 18 15 17 20 17 18 17 18 20 21 22 20 17 18 19 19 17 19 21 24 25 25 30 34 36 33 30 33 38 37 35 36 36 45 49 47 36 33
45 43 42 44 44 45 45 43 29 25 21 16 16 20 20 16 23 23 20 20 22 21 18 16 19 20 20 22 22 24 30 30 28 28 29 27 29 35 39 28 27 29 33 29 38 48 38 40 37

GFSSGP_500_spd_051.txt.gz
Wind_Speed
26 26 23 22 21 20 23 20 21 25 25 24 23 23 20 19 20 18 17 21 23 29 31 39 44 29 34 27 17 25 30 27 25 35 30 31 25 24 19 11 8 6 5 9 10 11 12 14 15
23 24 21 22 20 21 20 19 22 24 25 26 24 22 19 18 19 21 22 23 19 24 31 31 38 36 36 30 19 21 21 29 22 36 36 29 26 21 16 13 9 8 8 8 8 11 13 15 16
21 23 20 20 18 21 18 18 21 22 23 22 23 25 21 20 22 25 29 28 26 27 29 31 28 35 36 35 22 22 21 23 22 38 31 28 27 22 17 14 12 10 7 7 10 11 14 16 16
22 21 19 21 20 18 17 18 18 20 19 20 21 24 22 24 27 27 26 27 27 25 29 28 27 27 21 18 20 23 24 25 27 32 34 33 28 21 21 17 11 10 9 9 10 11 14 18 18
18 19 20 18 20 15 15 15 18 17 15 18 21 18 20 24 22 24 28 28 23 25 28 23 25 24 15 16 17 27 32 27 30 33 39 36 29 25 20 17 14 11 10 10 12 12 14 15 16
18 18 19 20 19 14 14 13 13 13 16 16 18 22 25 28 28 27 29 26 28 30 28 28 27 26 27 24 22 22 21 24 29 31 39 37 30 27 22 19 13 12 14 13 13 16 18 18 20
18 18 21 20 17 13 13 9 9 11 14 17 15 18 21 22 26 26 26 27 27 29 28 29 33 31 25 27 25 29 31 20 23 36 41 37 31 26 24 18 14 15 15 14 15 15 15 15 18
17 17 20 18 16 12 9 7 8 10 16 15 19 22 21 21 22 22 22 21 21 19 26 26 36 18 18 25 25 28 25 28 27 31 46 38 33 25 24 18 17 15 15 16 18 17 19 20 18
16 17 19 18 13 12 10 8 8 13 13 15 17 21 19 20 21 17 11 14 16 20 24 29 22 13 17 21 22 28 26 23 27 35 44 38 27 27 24 18 17 16 16 17 19 21 17 18 17
16 16 18 18 14 11 12 9 8 14 14 15 17 19 20 20 20 16 11 9 6 9 15 24 24 21 25 26 30 30 25 26 31 38 41 37 29 30 25 19 17 17 17 22 21 20 19 22 20
17 18 17 19 14 13 13 10 10 15 16 15 15 17 19 19 15 11 9 10 7 7 11 16 18 18 20 25 28 27 27 35 39 34 44 40 30 31 26 20 22 21 21 19 25 22 23 25 21
17 20 15 19 14 16 13 13 12 16 15 14 12 16 17 18 11 9 6 6 6 7 6 9 7 7 15 24 26 22 19 37 40 33 38 38 29 37 27 25 23 22 23 23 25 28 28 24 20
16 22 16 18 16 15 17 13 13 17 16 18 12 14 15 14 11 9 7 8 8 8 7 7 7 7 13 17 29 24 22 37 37 33 34 43 37 38 31 25 25 20 19 21 26 28 28 24 22
17 21 18 18 17 14 19 15 15 20 17 19 12 12 15 13 10 9 9 9 11 9 8 10 6 10 1 18 20 25 34 27 35 36 32 42 33 34 34 26 26 22 20 23 25 26 27 23 24
17 19 17 19 17 15 16 17 19 18 18 16 16 10 13 13 12 9 8 10 12 11 13 13 7 15 14 13 23 26 28 31 36 33 30 24 29 34 28 27 25 23 22 24 25 27 27 24 26
20 16 17 20 17 16 12 16 16 17 16 18 14 7 10 11 10 8 7 9 10 9 13 14 13 11 8 10 15 24 25 25 33 34 24 26 28 31 32 28 23 21 24 29 28 26 29 29 29
21 17 20 18 17 17 11 15 15 13 13 20 12 8 9 11 10 8 8 9 14 10 10 13 12 7 14 8 9 11 19 30 28 33 28 26 28 31 31 28 22 23 28 30 29 28 30 30 32
22 25 19 17 17 18 13 13 14 12 13 15 17 13 11 13 10 8 7 7 11 13 6 17 20 12 9 9 13 17 14 17 29 29 28 27 27 27 28 28 28 29 28 31 30 30 30 32 32
27 23 19 18 20 20 17 12 16 10 13 19 19 13 11 10 12 10 7 7 5 7 8 9 18 16 20 11 11 10 13 15 20 27 26 25 23 24 27 29 29 28 30 29 28 28 31 33 31
25 23 19 23 22 24 18 16 15 12 11 17 21 16 10 11 10 9 10 8 6 3 4 1 4 16 21 17 20 18 16 18 19 27 23 26 27 27 28 30 28 27 28 27 27 27 29 33 31
27 23 24 24 26 26 23 16 11 14 11 14 15 13 9 10 9 9 10 8 7 4 1 4 2 1 9 18 23 23 23 24 24 28 26 27 32 28 30 32 26 26 24 24 25 26 29 29 29
28 24 26 26 30 27 27 19 9 14 15 12 15 14 11 8 8 9 8 6 5 3 1 2 2 2 2 6 8 9 9 11 20 23 20 21 24 24 25 21 20 23 20 21 24 27 29 27 28
26 28 28 30 32 28 27 26 10 9 12 12 20 15 16 11 7 10 8 5 3 3 3 2 2 3 4 6 7 8 9 11 14 14 13 15 14 14 15 17 19 19 19 22 25 28 29 29 31
32 33 34 35 32 30 25 29 12 11 8 13 16 20 20 20 11 10 10 8 6 7 7 8 7 6 7 8 10 9 9 11 13 16 17 17 16 17 19 21 21 21 23 25 28 31 31 28 32
37 34 36 39 35 28 29 32 18 15 11 12 13 20 21 21 12 9 11 13 10 9 8 8 8 8 7 8 9 9 10 11 11 11 13 13 15 17 20 20 22 25 28 31 31 32 31 31 33
35 35 36 37 33 32 31 36 23 17 12 12 11 18 22 20 14 10 10 15 16 13 10 10 10 11 12 13 12 12 12 12 12 10 11 13 14 16 19 20 23 25 28 29 30 28 27 28 32
38 40 32 36 37 38 34 34 26 20 16 13 14 17 24 20 18 17 12 15 13 15 15 15 14 14 15 14 15 17 17 16 16 13 14 16 18 20 22 24 25 26 29 29 30 31 33 34 36
39 35 37 39 39 37 37 34 27 22 19 16 16 15 23 23 20 18 17 17 17 18 20 21 20 17 16 14 14 14 16 17 17 18 19 20 21 24 26 29 31 32 31 32 35 38 39 39 44
37 38 39 38 39 40 39 37 32 23 21 16 14 15 22 23 20 20 20 22 17 16 18 20 21 18 18 19 19 20 20 20 21 22 24 25 28 32 33 36 36 37 37 37 38 41 45 46 49
40 41 41 42 41 42 42 41 36 26 23 22 14 19 23 24 24 20 25 23 18 16 20 25 22 20 19 19 20 22 23 26 25 26 28 28 26 26 27 26 32 39 46 36 41 38 33 39 41

GFSSGP_500_spd_054.txt.gz
Wind_Speed
27 28 22 20 21 17 21 23 20 22 24 24 22 23 23 22 22 21 20 19 18 17 15 21 29 38 38 35 36 20 43 34 31 33 24 27 30 30 32 24 20 17 14 8 7 6 6 6 9
25 25 22 20 17 19 24 21 21 21 22 22 22 20 20 21 22 22 23 26 22 22 19 20 24 27 36 34 38 28 23 22 24 33 26 33 37 37 32 26 19 16 12 11 11 9 5 7 10
24 26 23 19 14 18 24 19 19 21 19 18 18 19 19 20 21 24 25 26 27 27 28 26 25 27 25 35 36 33 22 20 17 28 26 41 38 36 29 26 24 17 15 14 11 7 7 9 8
22 25 21 17 15 18 21 18 19 19 15 17 17 19 21 24 23 23 27 32 30 28 27 29 26 23 27 30 29 25 19 21 18 24 35 38 37 33 28 25 20 21 18 14 11 9 9 9 9
22 23 22 17 16 20 18 19 18 15 15 16 19 20 24 24 24 26 29 32 30 30 28 28 26 28 25 23 25 20 22 24 26 22 29 39 36 31 28 27 25 21 16 14 13 9 10 9 10
21 22 21 18 17 19 18 18 16 15 13 15 19 23 24 26 24 26 28 31 32 28 31 26 27 28 23 27 24 20 21 21 24 23 27 27 34 32 33 29 23 19 18 18 13 9 11 12 11
21 21 21 19 20 20 17 16 15 15 12 16 18 21 24 23 21 23 24 28 32 31 31 31 32 29 27 29 26 26 25 23 22 27 29 31 40 35 34 27 23 22 20 20 12 11 11 10 12
21 21 21 19 19 18 17 16 16 14 13 18 19 20 26 20 22 21 21 22 26 25 28 34 34 34 32 34 34 26 24 26 22 23 27 31 43 37 34 28 25 24 21 17 13 12 13 12 16
21 20 22 21 17 15 18 17 17 14 11 15 20 22 26 24 21 19 17 14 15 20 21 23 31 39 26 35 31 28 26 26 22 26 27 39 47 41 38 27 27 24 21 17 14 13 13 13 14
22 20 23 22 17 14 19 18 18 17 13 15 19 20 24 25 25 16 14 13 13 15 16 18 20 19 17 22 29 25 29 35 26 27 32 36 48 40 38 31 28 24 22 17 15 15 13 15 18
21 22 22 23 17 14 18 18 19 20 16 16 17 19 19 24 21 16 14 10 10 9 12 12 21 23 27 30 31 28 35 32 28 31 32 46 50 43 36 30 28 24 22 19 15 16 18 20 21
21 22 22 25 19 12 16 20 19 22 17 16 19 20 22 21 20 18 15 10 9 8 9 9 14 16 20 17 27 27 32 35 33 31 34 39 50 40 37 34 28 26 26 22 19 17 20 24 22
19 23 22 25 21 13 15 16 18 21 17 17 20 20 22 20 16 14 15 12 8 9 9 11 11 15 15 21 28 33 34 32 32 31 43 43 42 47 37 37 29 26 29 24 21 23 23 25 26
20 23 22 22 23 15 14 13 15 21 16 17 17 19 21 18 13 13 12 12 10 9 10 13 14 14 12 22 29 31 33 22 28 42 37 45 42 46 39 42 30 30 28 24 25 23 22 21 23
21 23 22 20 23 17 14 11 12 16 16 16 15 16 19 15 12 15 13 10 9 8 14 15 17 14 8 15 28 40 38 30 33 45 37 33 34 47 48 41 32 31 29 27 26 24 23 21 25
22 24 22 22 24 18 14 12 12 12 15 14 15 14 15 13 12 12 14 11 10 11 14 16 14 15 8 3 26 30 32 31 36 39 34 38 34 41 48 37 35 34 32 28 29 28 26 25 27
21 22 22 26 25 20 12 14 12 9 13 14 14 12 15 14 13 13 14 14 13 14 10 13 13 11 9 5 14 26 28 31 32 36 31 30 33 35 35 36 36 35 31 29 29 27 26 28 29
21 22 27 26 26 19 14 13 15 9 11 13 13 13 16 16 15 12 13 13 14 14 11 9 12 10 6 6 8 16 24 27 27 29 31 25 26 30 30 33 34 26 26 27 28 24 27 30 31
24 23 23 26 25 21 17 13 14 9 12 13 13 11 14 18 16 13 12 13 12 13 10 8 10 23 10 10 9 10 13 20 29 25 31 24 19 19 23 29 29 29 29 28 27 28 30 31 31
28 27 24 25 25 23 21 13 12 13 14 13 11 14 13 18 18 13 11 10 11 11 10 7 7 7 9 10 17 10 7 9 11 19 23 22 20 19 20 20 26 28 29 28 30 30 29 30 29
27 26 26 24 26 27 22 17 10 14 11 10 12 11 12 16 16 13 10 10 8 7 10 5 6 8 7 17 16 17 14 14 10 15 19 21 18 19 24 24 25 26 27 29 29 30 30 28 27
29 27 30 29 29 25 25 17 7 12 13 13 13 12 12 15 15 11 8 9 6 5 5 5 3 4 4 2 8 15 15 14 16 17 19 21 20 21 25 28 27 26 28 27 25 26 26 24 24
27 34 32 33 31 30 25 24 11 10 12 16 15 14 15 14 15 12 7 9 7 5 3 5 5 2 3 2 4 5 6 8 8 18 24 21 24 22 24 26 26 20 19 19 18 19 21 21 21
37 36 36 34 35 32 25 26 14 8 11 15 14 15 19 17 17 16 11 8 8 7 4 6 8 7 4 3 6 5 5 8 10 11 14 16 17 16 18 19 18 18 20 20 19 23 24 26 26
40 38 36 36 41 33 32 29 15 12 12 13 17 15 15 20 16 15 15 9 9 10 8 7 5 5 6 7 6 8 9 10 10 10 11 13 13 16 16 16 18 20 22 24 28 27 31 29 29
34 33 37 40 41 33 35 36 17 16 14 14 14 16 14 18 18 14 18 13 11 10 11 11 10 8 6 6 8 10 10 10 12 13 13 14 16 16 17 17 19 21 24 25 27 29 31 32 32
40 42 38 40 41 39 38 37 25 19 16 15 16 15 16 17 20 17 20 15 15 12 12 11 12 11 12 12 13 12 13 15 15 14 15 15 16 17 18 17 19 22 25 27 30 31 33 35 35
40 42 42 44 44 42 39 36 31 18 19 17 15 16 17 19 22 22 22 19 17 15 13 13 15 18 16 14 15 14 13 13 16 18 20 20 19 19 19 22 25 26 30 33 34 36 36 39 38
33 37 39 43 43 41 33 28 32 26 22 22 18 20 20 22 25 27 23 21 19 22 19 19 18 17 18 18 17 18 19 19 18 17 17 20 20 22 24 25 26 26 31 35 38 38 41 42 41
32 34 34 38 42 40 39 32 37 29 24 24 19 17 20 22 25 29 28 26 23 25 24 21 22 23 23 23 19 19 18 18 21 22 21 22 24 25 23 25 27 27 27 27 32 38 41 46 46

GFSSGP_500_spd_057.txt.gz
Wind_Speed
26 24 25 23 23 20 14 21 18 25 24 23 24 23 23 23 24 26 25 25 21 21 20 17 19 22 30 34 36 40 35 36 41 38 34 32 30 31 38 35 31 28 24 22 19 14 9 11 7
27 23 24 22 20 12 11 28 26 25 26 24 20 19 20 20 23 24 22 24 24 23 23 19 18 17 19 26 34 36 41 23 34 33 37 35 30 34 39 36 33 30 23 19 18 13 11 8 7
26 23 23 21 20 12 13 28 28 28 25 20 18 18 19 18 17 23 24 25 25 27 26 26 25 23 22 23 26 36 39 38 25 28 27 31 31 34 43 34 30 26 24 22 16 13 13 10 9
26 23 21 20 19 18 18 25 28 27 24 17 18 21 21 21 23 25 26 27 25 27 28 28 29 27 25 25 27 32 42 40 31 24 21 30 33 36 40 40 36 29 23 20 19 17 15 12 12
25 22 20 21 20 20 22 24 29 24 20 19 17 20 21 19 27 28 27 30 30 30 30 29 30 30 28 28 34 38 36 32 29 24 26 33 33 42 38 42 34 27 24 24 21 18 16 13 12
25 22 18 18 17 23 22 25 25 20 19 19 17 18 20 24 29 27 29 30 29 28 30 28 32 30 31 31 32 31 31 31 22 25 29 28 44 45 44 42 28 28 27 24 22 20 15 13 13
24 22 18 17 19 22 28 27 22 17 20 19 18 16 20 23 30 29 28 30 29 29 29 28 29 30 32 30 28 24 31 29 24 26 27 31 41 46 37 35 31 31 27 27 23 19 16 15 13
25 22 18 19 20 23 31 24 21 19 20 20 17 15 20 25 29 30 29 27 28 25 20 21 25 30 31 32 33 22 36 23 24 22 26 21 24 29 37 34 33 32 31 27 23 19 18 15 14
26 23 19 19 21 21 30 26 22 20 19 21 18 17 21 24 28 30 29 25 24 18 17 15 20 26 31 32 33 33 33 24 21 19 22 24 25 26 38 35 36 34 29 26 23 21 17 16 16
27 23 19 22 21 24 29 27 23 21 21 21 21 18 21 22 28 30 28 25 21 18 15 14 17 16 24 33 34 31 30 32 24 23 24 24 29 33 45 41 38 32 28 27 23 21 19 19 17
26 21 21 24 22 24 28 28 22 20 22 25 22 19 21 21 24 33 27 25 20 17 15 12 9 15 24 23 30 32 24 31 29 29 23 28 29 37 44 41 40 30 28 26 25 23 21 21 18
28 23 24 24 23 22 26 27 22 20 21 21 22 20 21 20 23 29 25 23 18 17 18 13 6 16 25 26 26 36 36 31 34 32 30 32 36 37 53 42 40 34 31 28 27 24 23 21 18
27 23 24 25 24 23 24 26 22 18 19 16 20 19 18 17 21 24 20 20 18 16 16 16 10 9 23 25 23 29 35 32 41 32 31 32 30 34 46 38 39 38 33 30 29 25 25 22 19
26 24 23 24 24 25 22 23 21 19 14 14 16 16 15 15 17 19 19 18 18 16 16 17 16 13 15 23 25 34 31 32 29 32 35 35 37 37 46 42 40 39 33 32 30 30 27 22 19
28 24 24 21 24 23 23 20 21 19 14 11 14 13 15 14 15 16 17 17 15 15 16 17 19 16 18 20 24 30 29 30 27 33 37 37 41 45 50 45 44 41 35 33 31 30 26 20 19
28 23 22 21 24 22 23 16 19 18 13 10 13 13 15 12 14 14 15 15 14 16 18 21 19 18 16 16 15 30 38 36 29 33 37 35 38 37 53 48 44 42 39 35 30 29 25 23 21
28 21 21 19 25 24 21 18 19 16 15 10 12 14 16 14 17 17 18 16 14 15 18 15 8 19 13 14 12 23 35 32 33 39 35 38 39 37 42 48 49 43 43 34 31 28 27 24 24
26 24 19 18 20 25 23 18 20 16 16 11 14 11 15 18 17 16 18 17 16 14 15 12 6 15 6 10 13 14 28 33 28 31 35 39 31 25 39 35 48 47 40 35 31 29 26 25 25
29 20 20 20 22 27 21 20 21 17 16 13 13 11 14 15 19 15 17 16 16 13 12 8 10 8 19 15 9 4 25 27 25 26 27 30 32 34 31 32 42 43 38 32 28 26 26 26 28
30 24 26 25 30 23 22 21 20 18 17 14 13 11 13 12 16 14 14 14 15 13 11 8 7 10 9 10 6 8 7 16 22 26 29 24 20 15 18 20 31 36 32 27 27 27 26 26 27
32 28 28 29 26 24 25 24 19 17 19 12 13 12 13 12 11 11 13 12 13 13 10 8 7 7 9 7 10 9 8 5 5 17 17 22 21 16 15 14 18 22 24 25 24 25 26 28 27
33 28 30 33 29 26 23 23 19 14 17 14 17 13 12 12 11 11 12 13 10 12 8 5 5 5 5 4 1 8 16 8 10 7 12 11 15 17 17 20 19 22 21 22 21 24 25 25 23
29 35 37 37 31 29 27 24 19 15 17 17 18 17 13 12 13 12 10 12 11 8 9 5 5 5 4 4 3 3 4 6 9 10 15 15 18 21 17 19 24 24 22 20 21 17 18 18 19
33 39 40 36 31 35 26 28 19 13 14 19 17 17 16 11 13 14 13 13 11 8 7 7 5 5 5 4 3 2 3 3 5 5 5 15 18 18 18 18 20 20 16 17 15 15 16 15 14
39 41 39 34 35 34 27 31 22 16 19 20 18 17 18 12 13 15 15 17 13 12 9 7 6 4 2 2 3 4 6 6 5 5 5 7 9 10 11 11 11 13 15 17 19 17 18 19 20
43 37 37 35 30 28 31 29 24 24 21 21 20 19 20 13 13 15 16 18 15 14 13 10 6 6 5 3 4 5 6 6 7 8 9 10 11 12 12 11 12 14 16 17 20 22 22 25 30
40 44 35 32 24 25 25 27 22 23 21 21 21 19 20 19 15 15 17 19 17 14 15 13 8 7 8 8 10 8 9 11 11 10 11 12 14 15 15 16 16 17 18 20 22 24 25 28 32
43 33 38 42 39 32 25 16 8 20 25 29 23 19 19 20 21 17 20 21 21 18 16 16 14 12 13 13 13 11 12 10 9 10 13 15 18 19 18 19 19 21 20 23 26 26 30 32 33
39 41 44 36 40 29 27 21 23 28 30 26 24 23 27 25 24 22 21 23 25 24 21 20 18 19 19 18 17 16 16 16 15 14 14 15 16 18 18 19 20 23 24 25 25 26 29 33 36
32 37 37 40 27 31 28 24 29 26 26 24 24 17 21 25 24 24 23 25 25 25 23 24 25 22 22 22 20 20 19 19 17 17 17 18 19 20 21 23 24 24 25 26 29 29 29 31 34

GFSSGP_500_spd_063.txt.gz
Wind_Speed
35 37 34 32 27 21 16 19 21 26 25 29 24 27 31 30 31 23 20 23 20 21 23 22 23 25 25 23 26 32 37 40 42 43 42 41 39 39 36 36 32 34 32 28 28 30 29 26 25
37 38 36 35 27 20 16 25 19 22 31 35 22 27 29 31 25 18 17 24 24 20 24 22 24 22 19 20 22 22 28 35 39 41 40 39 39 41 38 38 36 34 36 31 30 31 29 26 23
38 38 36 35 29 18 17 20 18 29 36 36 31 28 31 25 21 22 20 17 20 21 20 25 25 25 22 23 22 24 24 27 35 39 41 43 40 38 37 36 34 37 35 32 32 31 29 26 23
40 39 37 35 28 18 16 25 17 34 36 27 28 29 32 17 17 21 20 19 21 23 18 19 25 26 27 25 25 25 27 28 29 35 37 37 40 40 40 39 35 34 39 39 33 31 30 24 20
42 40 37 34 26 19 8 12 26 35 38 32 29 27 31 16 18 22 22 20 18 23 21 18 23 24 26 28 28 28 28 29 31 33 34 33 26 28 36 36 33 34 40 41 32 30 27 25 29
44 41 39 30 23 23 26 15 28 36 38 31 36 30 29 17 16 21 21 20 18 21 22 19 23 23 25 27 28 31 31 35 37 38 34 36 37 32 33 34 37 37 43 41 38 36 33 35 29
43 40 37 35 26 26 19 12 25 36 39 32 29 30 30 18 21 21 21 21 21 22 23 21 22 24 26 27 30 33 33 35 31 43 31 30 39 23 36 36 40 42 48 45 44 41 40 33 23
42 41 40 34 25 20 16 18 25 36 28 30 25 29 27 23 26 24 23 22 25 24 23 22 22 22 24 26 31 30 33 37 27 28 36 28 27 36 31 34 41 49 45 41 40 38 34 23 25
44 45 43 31 25 20 10 20 30 36 34 28 26 27 25 25 30 27 26 24 26 25 22 21 21 19 19 24 27 32 32 37 36 39 31 34 34 29 30 25 38 36 38 40 38 34 28 27 25
49 48 38 28 21 27 14 16 27 36 28 25 27 27 16 18 28 28 27 24 21 20 21 22 21 18 20 23 31 27 31 30 33 29 42 34 37 29 17 25 23 35 37 39 40 35 27 24 24
47 46 36 30 28 35 26 19 27 38 23 25 26 25 22 18 25 25 24 20 17 17 18 21 20 19 19 22 21 17 21 24 23 26 43 23 18 26 23 25 25 33 41 40 40 34 28 26 25
45 42 39 31 34 36 35 34 34 37 22 23 24 24 24 22 23 21 21 15 15 17 17 19 18 19 17 15 17 16 16 21 19 38 36 25 21 22 23 20 21 34 43 40 34 28 27 28 23
42 40 41 34 37 37 37 32 38 31 22 25 24 21 26 25 24 19 20 15 13 16 18 18 20 19 18 15 15 15 13 16 8 31 29 23 19 19 23 19 20 26 37 35 32 31 29 27 27
38 41 41 38 38 34 35 29 31 23 22 22 24 18 24 24 24 20 16 14 13 14 18 18 22 23 16 13 14 9 11 8 16 29 27 23 25 26 24 23 21 27 30 35 35 37 32 29 30
41 45 43 43 38 35 34 31 28 20 22 21 23 19 21 21 23 20 15 14 12 14 17 20 21 24 17 11 12 9 18 15 15 34 33 26 29 24 25 20 22 23 30 34 39 39 32 30 31
41 43 42 37 36 32 33 22 22 22 23 19 20 19 17 19 22 21 20 15 15 15 16 18 20 21 14 6 11 13 15 15 14 27 26 30 25 29 28 22 23 24 27 36 41 43 37 33 32
39 40 39 33 29 29 31 21 17 19 20 18 12 19 17 14 21 20 23 17 16 14 13 14 18 19 12 17 10 12 14 15 20 23 28 32 31 31 31 29 31 28 29 34 46 45 31 34 33
34 33 33 26 21 23 23 25 21 15 19 15 11 16 20 12 16 20 21 14 16 11 11 12 15 15 15 12 11 8 15 18 24 24 26 31 27 22 26 30 27 28 29 29 43 42 37 38 36
35 37 38 37 29 20 23 22 18 18 18 18 13 14 22 17 10 17 19 12 16 8 9 10 12 12 14 12 13 5 12 14 22 29 31 33 29 27 28 33 31 26 26 37 41 40 42 39 38
38 36 41 35 28 25 21 20 21 25 21 18 15 15 17 17 12 17 17 10 12 6 6 8 9 10 12 11 9 5 11 9 12 15 29 33 29 30 27 27 27 25 22 27 38 42 39 45 42
44 40 38 35 32 22 21 29 25 17 18 20 18 15 15 15 9 13 15 10 9 5 6 7 7 8 8 10 6 4 9 6 8 9 20 27 28 29 28 25 21 20 24 27 35 37 29 36 42
51 44 39 37 31 28 23 23 29 26 19 18 18 16 12 16 10 7 15 12 8 7 4 6 5 7 6 7 9 9 4 4 2 7 19 26 22 22 21 20 20 20 26 29 32 35 17 27 25
48 46 44 42 40 36 33 32 26 27 19 14 12 15 16 20 12 8 14 14 8 7 4 5 3 5 5 3 5 6 8 9 2 5 4 20 27 26 24 22 17 16 15 15 20 19 21 22 24
40 43 41 41 43 44 37 36 26 21 17 15 17 17 18 20 13 10 9 13 13 9 8 5 6 5 5 2 1 3 4 6 8 8 3 5 7 15 19 17 18 20 14 13 14 19 22 18 22
44 43 44 43 43 45 34 36 27 16 21 19 15 19 22 24 18 9 8 13 15 13 12 8 7 8 4 2 1 3 3 3 3 3 3 3 9 14 15 18 20 16 14 16 19 20 19 16 17
40 49 49 44 41 38 28 38 26 15 23 21 18 27 32 21 21 14 12 12 16 16 15 12 8 9 9 6 4 2 1 2 1 0 3 3 3 3 5 6 10 13 14 14 14 15 16 18 18
39 49 45 35 42 43 34 32 19 20 27 24 25 30 31 25 26 21 17 14 17 18 18 14 12 11 10 11 9 7 4 3 1 4 5 4 4 4 7 10 13 14 18 21 22 21 22 23 21
39 39 44 45 32 32 30 26 22 24 23 28 25 27 33 32 30 24 22 18 18 19 18 17 15 14 12 13 11 8 7 7 5 6 5 4 5 6 7 8 9 12 14 15 16 16 17 18 17
27 32 45 42 43 32 30 29 27 28 28 31 32 29 31 32 31 26 28 23 20 19 22 21 20 16 15 16 17 16 13 12 11 10 9 8 8 8 9 9 11 13 15 16 14 15 18 19 20
25 23 28 45 44 39 31 35 33 38 34 32 33 36 36 36 30 30 31 31 24 20 22 25 24 24 18 20 20 18 15 14 13 13 14 12 11 11 12 11 12 15 17 18 20 21 22 22 23

GFSSGP_500_spd_066.txt.gz
Wind_Speed
40 40 39 37 35 30 23 28 30 30 30 25 27 25 25 27 30 29 26 22 23 22 23 25 25 24 24 24 22 23 29 33 37 40 41 42 40 38 37 34 32 30 27 30 29 29 27 27 26
39 39 39 39 36 28 23 27 30 29 33 31 28 27 27 28 29 27 24 24 25 24 24 24 25 27 26 25 24 20 21 24 30 36 39 40 40 40 39 37 34 30 28 29 31 29 27 28 28
38 39 39 40 38 25 21 27 30 32 37 34 31 25 28 25 28 26 21 22 24 21 21 23 26 27 28 28 27 24 22 25 28 31 36 39 40 38 34 36 36 32 30 31 32 33 30 29 31
37 38 39 41 37 25 19 24 32 32 34 33 28 23 26 21 22 25 22 22 22 22 20 21 27 27 25 26 29 29 29 28 29 30 30 36 38 38 36 33 33 34 32 32 31 33 34 32 30
38 41 41 42 34 26 24 26 32 33 36 36 28 25 28 18 20 25 21 22 23 24 19 19 23 24 23 25 27 29 32 31 31 30 32 32 34 35 34 37 35 33 34 34 33 35 32 31 29
43 42 45 43 33 28 30 36 36 36 34 33 31 25 29 20 21 24 22 23 23 24 22 20 21 23 22 22 22 27 33 36 34 33 34 34 33 30 28 30 38 37 34 34 35 37 38 38 30
45 45 45 42 38 32 28 34 34 36 28 31 33 35 34 23 21 25 23 24 24 25 29 26 23 23 22 22 21 25 38 38 34 27 36 42 34 33 31 26 29 33 35 38 38 37 37 36 34
49 50 52 48 35 31 31 36 38 26 23 30 36 31 33 24 21 22 22 26 28 29 30 27 22 22 20 19 19 24 23 27 32 27 31 39 31 28 34 31 29 32 36 38 42 40 40 38 37
51 54 54 42 34 26 32 37 43 21 29 33 33 32 25 23 22 22 22 27 28 29 27 24 21 20 19 19 17 22 26 28 26 34 36 34 26 27 27 22 33 34 38 42 42 43 42 41 34
52 51 47 32 35 31 33 44 44 35 32 36 30 28 22 21 19 24 23 25 24 26 21 17 17 17 18 19 19 22 24 26 26 30 33 26 39 30 37 30 28 34 39 43 45 44 39 36 33
47 47 34 35 34 34 35 45 47 44 37 32 25 26 21 20 20 22 23 24 20 21 17 17 16 16 16 19 20 18 20 24 28 28 28 34 29 32 28 29 28 18 33 37 38 35 34 30 29
45 41 36 34 37 37 43 43 49 47 37 29 24 25 21 20 20 21 22 20 17 18 18 17 17 16 16 19 18 14 16 18 23 24 25 27 43 31 30 31 22 20 25 25 30 34 34 33 27
44 39 38 35 38 36 45 50 46 43 31 26 25 21 18 18 20 21 22 18 16 17 19 16 16 18 20 17 18 14 16 16 22 28 27 31 36 28 25 29 27 25 28 25 32 34 33 33 24
41 39 35 36 36 38 48 52 47 36 30 27 26 22 20 18 20 19 19 19 18 17 16 16 17 19 20 14 16 13 15 15 15 18 28 43 28 27 22 27 23 21 28 28 32 37 32 30 25
38 38 36 29 35 39 45 48 46 30 31 31 30 24 20 19 18 18 17 21 22 17 17 17 15 17 18 5 9 9 14 14 11 4 38 36 29 23 19 25 20 18 19 24 30 35 32 33 30
37 36 28 29 36 34 43 46 38 30 29 32 34 26 19 14 16 17 17 21 24 20 19 17 14 16 13 8 9 10 11 16 9 11 27 33 22 23 23 24 20 21 20 25 30 29 33 33 33
37 33 27 25 30 33 44 41 31 31 33 34 32 25 22 13 11 16 18 19 21 18 16 14 12 14 12 13 10 12 14 14 13 16 30 33 27 24 26 25 23 25 25 24 28 30 31 39 38
32 30 29 24 25 34 37 37 38 32 32 29 27 26 18 12 7 12 19 17 18 13 14 12 12 14 14 9 10 9 13 16 17 19 24 32 27 28 27 31 29 32 27 27 25 28 32 42 42
31 31 30 27 24 37 37 40 37 31 30 32 25 22 18 11 9 12 16 15 16 11 12 9 10 12 13 11 10 8 12 12 15 20 25 28 31 32 32 27 26 30 25 25 27 28 32 36 42
30 34 30 28 28 36 38 36 34 27 31 27 24 22 16 11 7 10 13 13 13 10 9 8 7 10 12 11 11 8 7 12 18 23 27 32 32 36 34 28 25 29 29 27 27 27 33 29 41
32 36 33 33 35 39 39 37 35 28 29 25 19 20 18 12 9 7 12 10 12 10 9 8 6 7 10 10 10 3 7 6 6 11 18 26 31 36 34 29 26 26 30 27 29 24 28 38 41
35 31 35 39 41 47 44 35 37 33 30 26 23 22 19 15 11 7 12 9 12 12 10 8 6 5 7 8 7 8 9 5 6 7 10 23 25 27 29 30 28 27 27 27 25 28 27 27 37
31 33 42 48 51 46 44 42 37 32 33 26 24 21 18 18 12 6 9 13 12 12 10 9 7 5 6 6 5 4 4 8 6 4 5 20 28 29 32 32 29 29 28 25 24 28 27 28 27
31 34 43 45 45 46 39 34 29 21 20 24 28 23 21 20 13 11 10 17 12 13 11 10 9 8 7 5 5 4 4 3 5 7 4 8 23 30 24 24 23 25 22 23 25 33 27 19 23
28 31 46 48 48 44 39 38 32 20 18 26 30 30 25 19 18 12 7 18 17 12 14 13 12 11 9 6 5 3 2 2 0 1 4 6 10 8 13 20 21 19 21 20 19 19 24 26 24
25 29 43 49 50 46 37 47 30 21 20 24 28 25 23 21 13 11 9 12 17 15 14 15 14 13 12 10 8 6 3 2 3 2 2 2 6 6 10 16 18 18 22 21 18 21 22 25 27
26 35 33 41 44 42 40 40 26 25 32 32 23 23 23 18 16 15 15 19 15 18 16 16 16 16 14 14 13 10 8 6 6 6 6 2 4 5 7 7 7 9 11 12 14 17 18 21 25
23 28 37 41 44 48 42 35 29 25 33 33 30 25 27 25 26 26 24 20 16 18 19 18 20 18 17 18 16 14 10 10 10 7 6 6 7 7 9 10 11 13 16 16 16 17 19 22 22
26 29 31 41 42 35 38 36 33 33 40 36 33 32 29 29 31 31 25 19 20 20 21 23 22 22 20 20 20 18 15 12 13 13 11 11 10 9 10 10 11 13 14 16 16 17 20 19 20
20 27 32 38 43 34 33 30 35 39 41 36 37 38 32 32 33 31 27 22 21 23 26 27 27 25 25 23 22 22 19 15 13 14 13 14 15 14 14 14 14 14 14 14 15 17 20 20 22

GFSSGP_500_spd_069.txt.gz
Wind_Speed
36 34 35 36 35 34 26 30 33 30 32 30 32 27 27 21 20 26 28 30 31 28 25 25 27 28 28 28 29 29 26 24 23 28 33 35 37 36 35 34 33 31 30 29 27 27 24 24 23
31 31 33 35 36 35 24 30 31 31 35 33 34 28 29 24 25 27 28 28 27 23 25 27 27 29 30 30 31 30 28 26 23 24 24 28 34 37 36 34 33 33 32 29 28 25 25 25 24
29 28 30 32 33 29 22 30 31 33 37 35 36 28 30 24 27 23 27 25 24 24 25 24 28 28 29 32 31 29 31 30 29 26 26 26 28 33 34 33 33 31 33 30 27 25 25 26 24
28 32 34 35 36 29 21 33 34 34 37 37 37 35 33 27 24 22 27 24 24 26 24 25 27 28 27 29 28 28 30 35 34 31 28 29 25 26 30 32 33 32 32 32 29 27 25 28 27
31 35 36 40 39 28 26 31 35 37 38 39 42 38 32 29 22 23 25 23 25 27 24 24 25 28 27 27 27 30 33 35 37 34 32 31 29 25 24 27 29 30 33 33 31 29 28 25 26
35 34 39 42 42 33 27 29 35 40 38 39 43 34 33 28 23 24 22 23 29 28 28 25 25 28 27 28 27 28 31 36 39 35 36 36 35 29 27 25 28 32 33 33 31 28 27 27 31
35 37 43 47 44 43 24 32 38 41 39 42 45 39 35 29 24 23 23 25 32 32 29 23 26 31 28 28 27 26 31 34 46 32 28 34 40 30 24 23 24 30 34 35 31 30 26 27 32
38 42 47 47 46 41 28 33 37 42 42 45 42 37 33 33 21 23 25 27 33 31 30 26 28 27 26 26 26 26 28 28 44 30 34 16 36 25 32 26 23 25 27 36 33 30 26 28 31
41 45 47 47 44 32 26 36 42 46 49 52 38 33 34 32 21 22 27 27 30 29 29 27 23 22 22 23 24 22 23 23 23 27 28 27 24 42 37 29 23 27 24 27 31 29 29 32 35
43 45 47 46 43 35 31 36 43 50 53 52 49 35 36 28 20 19 27 27 24 25 24 21 16 18 18 19 22 20 23 23 26 27 30 33 24 35 34 23 22 27 24 28 25 30 33 39 39
42 46 47 48 39 37 35 37 42 52 49 48 51 43 32 22 22 19 22 24 22 24 19 16 14 17 19 18 20 21 22 26 27 27 27 26 27 39 31 27 25 22 24 30 28 24 40 37 40
45 49 46 39 37 38 37 38 47 50 49 52 52 51 27 20 19 18 21 22 21 20 15 13 16 16 16 20 21 22 22 24 23 26 32 30 26 28 30 35 29 27 21 33 37 28 31 38 37
47 43 41 35 39 39 37 43 48 48 48 55 56 47 29 19 18 16 23 21 20 18 13 12 16 15 16 21 23 22 21 21 22 24 28 30 31 32 35 32 30 23 28 25 18 24 26 29 32
44 40 36 37 38 40 40 40 50 45 47 52 49 46 28 19 19 17 23 20 20 16 15 14 16 17 17 20 23 23 21 21 24 21 25 30 30 30 31 35 30 27 31 25 18 20 28 29 30
40 37 36 36 34 32 39 42 45 45 51 49 46 40 28 18 19 21 20 19 21 13 15 18 18 18 16 18 11 16 18 17 24 23 27 33 28 32 33 30 29 25 25 27 25 24 27 27 27
35 35 38 31 30 26 39 37 40 44 51 50 43 35 31 20 19 23 17 18 18 16 14 17 19 15 16 14 16 21 18 15 16 17 22 31 32 31 29 27 26 25 21 22 25 24 25 29 32
34 34 34 30 28 33 39 35 34 40 47 47 40 39 31 23 20 25 18 15 14 17 13 14 14 14 15 13 14 18 17 18 18 7 19 25 34 27 22 24 22 21 22 17 17 21 23 30 35
33 34 28 27 29 40 43 40 33 35 44 40 40 42 33 24 20 24 17 13 13 14 11 12 13 14 14 12 13 18 12 17 20 18 28 35 30 28 24 22 29 24 21 22 20 21 26 30 34
34 32 30 30 27 35 31 29 27 32 39 43 45 42 37 25 24 17 14 11 12 12 9 11 12 12 11 9 12 16 12 14 19 24 36 34 35 31 26 29 30 28 22 25 24 24 26 27 30
34 33 29 27 25 37 36 39 35 35 36 41 34 39 30 29 20 15 13 11 10 10 8 10 11 11 7 8 11 12 8 13 15 20 27 39 41 40 33 31 29 29 30 33 31 28 29 30 28
32 31 28 28 30 37 40 44 36 33 37 39 41 34 32 29 21 17 14 10 9 10 10 11 11 11 7 7 7 2 9 14 15 20 26 31 35 41 41 35 39 30 32 30 29 27 26 27 27
32 28 26 31 32 37 41 41 34 31 36 37 37 36 32 31 22 20 16 10 10 11 11 13 11 10 7 6 5 5 7 9 13 16 23 28 35 40 37 34 39 35 31 30 31 32 28 28 27
35 30 34 37 34 39 43 42 31 34 33 34 31 33 32 29 21 19 12 11 10 12 12 13 11 10 7 8 5 5 5 4 5 12 12 17 22 26 40 34 33 35 31 30 32 31 28 28 29
31 29 32 32 36 44 43 44 28 36 33 30 31 31 27 27 25 21 16 12 13 11 12 12 11 10 10 9 8 3 5 5 4 3 10 13 23 22 31 32 33 33 33 32 33 26 31 30 30
33 26 28 32 38 40 40 44 28 33 32 31 28 25 26 28 28 24 15 9 16 11 12 14 13 12 11 9 10 7 2 4 4 3 2 8 19 25 27 28 32 31 32 35 29 30 29 26 30
25 21 32 35 37 38 39 46 36 31 30 30 31 29 31 30 28 23 17 11 15 13 10 13 15 14 14 12 11 11 7 3 5 8 4 1 7 14 21 28 29 27 26 26 27 30 27 35 30
18 24 26 33 35 34 41 36 34 34 32 32 29 25 18 29 26 24 21 15 15 16 15 11 15 17 16 16 14 13 11 9 6 7 11 5 4 6 12 16 17 19 21 22 26 22 23 25 30
12 15 22 30 29 34 41 34 34 39 33 30 29 23 21 25 27 25 20 20 21 19 20 16 14 16 18 20 18 17 15 13 10 9 7 9 9 8 9 10 12 13 15 16 17 15 19 21 24
16 22 19 22 28 31 32 36 33 35 33 34 32 28 26 26 28 28 24 23 21 19 22 21 18 18 18 20 20 20 19 18 16 15 13 10 11 10 11 12 13 13 15 17 18 18 20 19 19
19 26 28 21 26 29 31 33 29 32 35 36 32 29 33 32 29 26 26 23 22 22 23 21 20 20 20 21 22 22 22 22 21 18 19 16 15 15 14 14 15 17 18 19 19 20 21 22 24

GFSSGP_500_spd_072.txt.gz
Wind_Speed
39 37 35 33 30 30 27 24 29 29 31 30 30 30 27 26 25 26 26 28 31 29 28 27 24 24 26 24 24 26 28 28 29 27 22 22 25 29 31 30 27 28 28 29 28 25 23 21 18
35 32 28 28 29 28 23 25 29 29 31 32 34 32 29 26 27 26 27 32 31 29 30 27 25 25 25 24 25 28 31 31 29 29 26 23 23 25 27 27 26 28 27 28 28 26 23 21 18
32 29 30 30 31 28 22 26 30 29 33 35 36 35 34 26 29 27 29 32 32 28 29 25 28 28 26 25 25 27 30 30 29 29 30 28 25 23 21 21 24 26 28 29 28 25 21 19 19
33 32 32 30 34 27 21 24 31 33 35 36 38 37 37 32 30 30 30 31 33 28 28 26 29 29 29 26 25 29 29 30 29 29 30 33 31 27 21 18 19 23 28 29 29 24 19 19 17
32 31 32 35 32 26 20 24 33 35 35 39 40 38 35 34 33 35 32 29 30 29 28 26 31 30 28 27 27 29 31 30 32 32 33 32 33 30 24 20 17 19 24 28 27 22 19 21 22
33 33 34 33 36 32 25 23 31 34 39 37 39 36 37 38 35 35 32 26 26 30 30 26 30 29 30 30 34 31 32 28 32 35 38 33 31 33 28 23 20 21 23 24 25 25 24 25 26
35 34 35 37 39 34 23 23 28 33 41 39 38 41 40 36 36 39 30 27 25 30 30 27 28 29 30 33 37 31 28 28 30 36 34 37 36 33 31 25 22 22 23 26 25 25 27 26 27
35 35 39 38 35 27 24 22 28 37 40 40 41 46 44 42 43 40 28 27 26 26 28 28 31 30 31 33 32 27 25 28 29 25 26 45 39 27 24 30 21 20 20 24 30 27 28 26 25
38 41 39 35 32 32 30 25 29 37 40 43 46 50 49 48 44 37 27 25 27 22 23 28 29 25 25 22 25 24 24 26 27 25 27 33 38 24 18 21 29 27 19 20 27 31 28 28 25
39 38 37 34 36 37 40 31 31 38 43 47 49 52 48 49 48 39 28 23 26 22 21 22 20 17 18 19 21 22 22 24 25 26 24 24 26 34 24 26 22 22 20 19 20 32 29 25 26
37 38 35 37 38 40 42 37 34 41 44 50 53 50 52 51 47 40 28 25 24 21 19 21 17 15 17 18 21 20 21 23 25 28 26 29 26 29 30 31 32 27 19 20 18 22 26 28 29
40 35 36 39 41 43 41 38 40 43 44 48 54 51 52 49 44 36 29 25 22 17 19 18 17 16 16 17 20 21 22 23 27 28 27 28 25 22 28 26 31 35 22 17 20 23 22 34 32
40 35 40 41 44 44 40 43 42 45 42 47 51 51 48 50 44 30 29 25 21 17 19 15 17 16 16 17 20 23 25 26 25 23 23 28 31 25 23 23 41 39 26 17 20 25 26 27 25
36 38 39 41 43 42 41 39 44 39 40 49 51 49 47 48 40 38 33 28 19 17 17 15 18 15 16 17 21 25 20 19 24 25 24 26 30 33 31 25 35 39 28 26 20 24 29 29 25
36 38 39 39 38 39 38 45 42 32 41 49 49 46 48 42 33 31 30 25 19 17 14 17 17 16 16 17 20 23 21 24 23 24 24 26 28 32 34 36 36 38 29 18 23 22 25 24 24
37 38 37 35 37 36 43 44 32 32 40 47 46 49 46 39 31 31 27 24 21 18 14 16 17 15 15 17 20 22 24 24 23 20 23 27 27 31 28 32 35 35 30 19 29 27 24 23 23
36 38 36 38 36 39 43 43 29 35 39 44 48 49 42 36 32 26 24 25 22 18 12 13 12 11 12 17 19 22 22 21 23 22 18 23 27 30 28 37 36 31 24 22 21 30 27 27 28
38 36 35 35 34 38 41 40 32 35 40 43 46 48 45 36 32 29 26 26 24 15 10 11 9 11 12 15 17 18 21 19 20 24 22 18 29 33 30 40 35 29 23 20 19 19 21 28 29
34 35 35 32 33 34 39 38 32 36 41 41 40 41 41 34 33 30 28 28 19 15 8 9 9 10 11 13 13 15 21 15 14 19 19 18 34 28 35 32 31 27 25 24 24 21 22 24 23
34 34 30 33 30 32 36 36 33 33 41 43 38 33 32 35 35 30 28 28 16 12 8 9 9 10 11 11 11 14 13 8 10 15 17 19 33 37 36 31 28 27 29 22 24 26 21 23 25
33 34 30 34 29 31 35 35 35 31 39 42 38 34 31 29 33 31 28 27 15 10 9 8 10 10 10 9 8 8 7 8 10 10 16 20 29 30 33 32 30 27 27 32 27 26 24 26 27
32 31 31 34 30 35 39 28 36 32 37 38 35 32 30 32 32 30 28 25 14 11 9 9 11 11 10 7 8 5 5 7 8 12 13 21 25 33 35 34 31 28 28 28 27 28 31 29 26
30 32 30 32 28 36 40 37 31 29 38 37 33 30 29 31 28 27 28 24 15 13 10 11 12 11 11 8 7 6 5 4 5 9 12 14 25 33 35 40 36 35 33 36 33 30 29 30 28
31 29 28 30 29 35 41 39 32 29 34 32 33 28 27 32 33 30 31 26 19 13 9 12 13 12 12 10 7 6 5 4 4 6 6 12 17 29 36 39 37 37 34 38 35 33 33 34 31
29 27 28 31 31 36 42 38 36 21 35 36 32 30 31 33 31 32 33 28 20 15 9 12 16 15 15 12 10 8 6 4 3 2 4 6 12 18 20 24 39 38 33 32 36 35 34 35 31
27 26 26 30 31 35 39 38 34 27 34 38 31 31 32 31 33 30 31 27 20 15 10 11 19 17 17 15 12 10 9 7 5 3 3 4 6 8 21 20 26 38 33 33 32 35 37 38 32
26 24 27 29 30 35 37 27 26 27 34 34 30 32 30 28 27 27 28 26 23 17 15 13 14 16 15 16 13 12 12 12 10 10 10 6 3 3 12 20 24 32 34 33 29 33 34 32 31
25 25 24 24 27 31 30 22 31 30 35 29 31 33 33 29 31 30 29 30 27 24 20 16 15 11 13 15 14 13 14 15 15 13 12 9 10 8 7 10 16 21 21 23 24 22 28 27 26
24 23 22 18 25 23 18 19 31 28 34 33 34 33 32 33 36 30 33 34 32 29 21 19 17 13 14 14 14 15 15 17 18 18 18 15 13 12 12 12 11 11 13 15 16 17 19 18 21
24 24 22 18 15 18 20 20 20 21 28 37 33 32 32 29 24 27 32 33 33 30 25 20 16 13 12 11 13 16 18 19 19 19 18 15 15 16 16 15 16 17 18 17 17 19 21 22 24

GFSSGP_500_spd_075.txt.gz
Wind_Speed
35 36 38 38 35 32 26 21 24 26 24 23 24 27 26 27 24 24 26 29 30 29 27 28 27 27 24 21 20 20 22 23 24 26 26 26 25 25 23 23 26 27 26 25 25 25 23 20 17
37 38 38 39 34 29 22 21 22 23 24 25 26 28 29 29 26 27 28 29 30 31 31 28 27 25 24 22 22 23 23 24 25 26 25 25 27 25 22 20 20 24 24 25 25 24 23 21 18
38 38 38 37 32 25 21 22 22 23 23 25 28 30 32 28 28 29 30 30 30 33 35 31 28 25 25 25 24 26 25 24 24 24 23 23 25 25 24 21 18 23 25 24 23 23 22 22 20
39 39 37 35 30 26 23 22 24 25 24 25 29 32 32 29 28 29 30 30 31 34 37 36 31 28 24 27 28 28 25 25 25 26 26 27 26 26 26 24 21 22 24 23 22 21 20 22 22
39 39 40 35 29 25 20 24 24 24 26 29 32 28 30 28 29 29 33 35 32 35 39 36 31 29 25 26 29 29 28 29 29 28 27 27 28 29 28 26 24 22 23 21 22 20 21 20 23
42 41 40 33 27 28 24 24 23 25 27 31 31 33 31 29 31 33 38 38 34 34 39 38 29 30 28 25 29 28 32 32 28 24 25 28 29 30 30 26 22 21 20 20 21 25 24 25 24
44 40 37 34 32 31 20 23 25 27 31 34 31 34 31 32 36 39 42 42 32 36 39 35 28 28 30 26 27 32 33 31 27 23 21 30 28 29 33 25 21 21 19 21 24 28 29 30 27
42 39 36 34 32 29 21 26 27 30 33 36 33 37 34 36 42 44 45 45 32 39 36 31 27 26 29 27 30 32 29 22 22 25 23 27 27 28 38 30 29 19 19 18 24 28 32 30 29
38 39 36 34 32 27 26 31 31 33 35 37 37 36 37 39 44 46 48 46 35 36 35 28 24 24 28 27 27 24 22 21 22 23 23 20 26 30 35 32 29 25 24 15 22 26 30 29 30
40 39 38 36 30 30 36 35 34 35 36 39 40 38 38 42 48 50 50 42 37 39 36 26 22 24 24 22 22 20 20 20 21 22 24 25 23 27 26 34 23 31 29 17 14 21 30 29 28
39 38 37 37 32 35 37 36 34 37 42 40 40 39 42 45 49 47 48 45 36 38 36 27 22 24 21 20 19 20 19 18 21 24 26 26 26 26 21 35 25 26 27 18 15 13 24 31 30
41 38 36 36 36 39 39 38 37 40 39 37 38 42 44 48 46 46 44 42 33 36 34 26 23 22 21 21 20 20 20 20 22 22 25 28 25 25 24 29 27 25 28 20 18 18 20 32 30
40 36 37 37 38 37 37 37 38 43 35 34 37 44 45 47 45 46 43 39 28 34 32 26 23 21 22 22 22 21 23 22 25 23 23 23 24 25 24 30 31 29 33 26 18 20 20 27 30
39 41 37 38 35 35 37 37 45 35 29 33 40 44 46 41 42 42 38 38 35 37 34 25 23 21 23 21 22 23 23 23 22 18 19 21 24 23 28 25 29 30 38 34 24 21 24 25 29
39 38 38 35 34 37 37 42 40 28 29 37 42 45 43 40 39 36 38 35 29 35 33 22 23 21 23 23 24 24 23 24 23 24 23 20 23 23 30 26 25 31 40 35 28 23 23 28 31
37 38 37 34 35 35 38 37 32 34 38 40 39 41 40 40 38 39 35 31 33 30 30 21 22 22 23 23 23 22 22 23 22 26 22 20 22 27 30 33 30 28 37 36 33 26 28 24 30
36 36 37 38 34 33 36 37 30 34 39 40 36 37 42 40 38 36 36 30 30 30 28 22 20 21 19 18 18 20 22 22 22 22 22 18 22 25 27 33 38 35 36 36 35 25 28 27 30
35 39 35 34 29 33 36 37 36 35 41 36 39 39 39 38 36 41 36 29 28 29 27 22 20 16 14 14 16 19 22 22 22 23 19 22 19 23 28 30 34 37 39 41 31 28 35 33 30
35 33 33 32 33 34 34 36 37 37 35 33 39 39 42 40 36 39 35 32 26 25 27 25 18 12 10 13 14 18 20 20 19 18 14 20 25 24 33 33 29 34 36 27 29 27 31 33 31
32 34 34 34 31 34 32 36 35 36 29 31 37 38 41 41 34 32 32 34 23 26 29 21 17 10 9 13 14 16 15 10 7 8 7 17 19 30 31 33 34 39 35 22 25 23 22 21 23
33 35 32 32 29 30 33 36 31 32 28 33 35 40 37 37 35 30 28 27 25 26 28 19 14 10 10 13 14 13 12 12 10 7 6 8 11 27 32 25 33 33 26 26 27 27 22 20 21
32 31 30 29 29 26 32 36 30 28 29 32 34 37 36 35 31 26 27 26 24 27 28 19 15 11 11 13 12 11 9 8 4 3 6 8 8 18 24 33 31 31 27 29 30 26 22 25 22
29 29 29 28 28 30 27 33 30 25 31 29 26 31 37 35 28 25 19 22 27 30 27 18 16 13 12 13 12 10 8 7 4 4 2 6 8 14 20 30 33 32 30 28 25 27 28 26 27
26 28 28 28 29 26 24 30 28 22 26 29 28 32 33 33 30 26 26 26 28 28 24 19 17 15 14 13 12 10 9 7 7 3 2 2 6 11 18 22 28 34 31 31 30 25 30 30 26
27 27 27 29 27 24 26 29 25 25 26 28 31 35 34 33 30 31 24 29 28 27 23 20 20 17 15 13 12 10 9 7 8 6 2 2 3 8 11 21 29 31 29 33 32 27 29 31 30
27 28 26 29 26 23 25 29 25 19 26 28 33 38 37 36 30 34 27 32 32 29 24 22 19 17 16 14 13 11 10 8 7 8 10 8 6 6 10 15 22 26 26 28 29 29 29 30 33
26 26 27 26 24 25 27 23 25 18 27 29 35 37 34 35 28 26 30 36 35 31 27 23 17 12 14 13 11 11 10 10 11 11 13 12 10 8 5 11 14 18 22 28 31 33 31 32 33
27 27 24 21 21 21 20 20 25 19 24 33 33 37 34 32 28 27 32 38 37 32 28 25 18 13 12 13 11 11 11 11 11 12 13 15 11 8 7 6 13 18 21 23 27 33 33 32 28
26 26 22 18 18 16 11 16 18 19 25 34 36 37 39 32 32 35 33 34 36 33 30 24 21 16 14 10 10 11 11 12 12 12 11 11 10 9 8 8 7 9 11 12 14 19 25 29 28
26 24 20 19 16 7 12 17 10 10 19 24 35 33 37 33 34 36 38 36 33 35 34 30 24 16 14 15 15 14 15 15 14 13 13 12 10 7 8 10 11 11 12 13 15 16 17 19 21

GFSSGP_500_spd_078.txt.gz
Wind_Speed
39 38 37 36 36 38 36 34 29 27 25 20 19 19 19 21 19 20 20 23 23 24 25 25 25 23 24 23 23 22 21 21 23 24 27 27 25 25 27 24 20 19 23 25 26 25 24 22 21
40 40 40 40 40 38 38 32 28 29 26 21 19 20 21 22 18 20 23 25 25 27 26 26 28 23 24 25 23 22 20 22 24 24 26 26 26 23 24 24 22 18 19 23 25 25 24 22 21
41 41 41 43 40 37 37 28 33 31 27 21 20 23 24 21 19 20 22 26 28 29 28 28 31 29 28 27 28 25 23 22 24 24 24 24 23 24 22 23 22 18 18 21 26 27 23 23 23
41 42 43 44 42 38 37 33 35 33 26 22 23 25 26 23 21 21 24 28 31 31 31 29 31 34 32 29 29 29 24 24 23 25 25 25 25 25 25 23 24 20 20 23 26 25 24 24 23
42 43 43 43 41 39 37 35 36 34 29 24 25 26 25 24 23 23 26 30 34 34 34 30 32 36 33 31 32 30 27 25 24 24 28 29 27 27 26 26 25 24 20 23 28 26 27 26 25
44 46 47 44 41 44 43 35 36 34 30 28 28 27 25 25 26 26 28 32 37 36 36 31 35 39 37 33 32 30 29 25 26 26 29 29 30 32 31 29 29 24 20 22 27 29 28 26 27
43 44 45 47 46 45 42 35 37 34 32 31 30 29 28 27 28 27 30 34 40 39 36 30 36 40 38 34 34 28 29 26 27 25 26 25 23 28 28 25 27 21 18 19 25 30 30 30 28
39 39 37 41 44 45 37 31 35 35 35 33 31 31 31 30 28 31 34 39 39 38 36 34 35 34 36 35 34 28 28 27 25 20 21 23 22 16 38 33 19 12 16 20 26 31 33 34 32
46 44 40 39 40 41 39 34 38 39 38 36 35 35 30 28 30 34 37 39 40 38 36 36 37 30 34 34 32 30 27 27 21 18 21 22 21 20 30 28 23 31 24 20 26 31 35 35 35
49 47 43 39 38 40 40 37 40 41 40 38 35 36 28 31 33 35 39 41 41 39 39 37 33 30 32 32 31 28 26 23 19 19 19 21 20 21 26 22 27 29 28 30 24 26 29 32 36
47 47 45 41 39 38 41 41 40 43 40 37 34 34 34 32 33 38 40 41 39 39 39 30 30 30 32 31 29 27 24 24 19 19 20 21 22 23 24 26 32 35 25 31 32 21 23 29 34
49 47 45 43 40 39 40 40 43 40 39 36 32 33 38 34 33 38 40 38 39 40 36 29 27 32 32 31 28 27 24 26 20 20 22 23 23 23 26 26 25 32 29 30 32 24 21 26 32
49 46 45 45 43 40 41 42 37 42 42 30 33 35 37 37 34 38 39 38 39 38 35 32 32 32 32 31 29 27 29 26 22 22 25 25 22 23 26 26 26 33 23 25 33 25 22 20 33
49 47 45 44 42 39 40 39 43 40 32 34 35 36 37 38 36 38 39 39 38 36 32 31 33 32 32 31 30 28 31 27 23 23 25 21 17 22 24 24 26 27 29 27 32 26 20 19 28
47 47 45 42 40 40 40 42 40 31 32 35 35 35 37 38 38 37 36 36 35 32 30 27 32 33 32 31 30 30 31 27 25 24 23 23 22 22 26 25 29 29 31 30 34 27 21 21 23
41 44 43 41 38 39 42 40 37 33 34 34 33 36 34 37 39 38 35 35 32 32 28 29 35 31 31 31 29 30 31 27 24 23 23 24 24 24 27 27 30 27 33 39 41 33 23 25 26
39 39 42 41 36 37 39 40 34 33 33 33 33 34 34 35 39 37 37 35 34 31 29 32 33 28 28 31 25 28 27 22 21 22 24 23 24 23 24 24 28 29 30 38 44 38 30 27 27
36 38 39 37 33 34 35 40 36 32 34 33 32 32 35 32 38 38 40 38 36 31 31 31 29 25 27 25 22 23 20 20 21 23 25 26 26 24 24 30 29 32 30 41 47 43 35 34 30
36 39 36 32 32 35 38 36 33 32 34 31 31 32 32 29 36 37 37 38 36 30 30 29 25 22 29 21 22 20 18 18 20 24 27 24 25 19 27 23 28 27 33 37 44 42 40 33 28
34 36 39 39 31 35 33 34 36 35 30 30 31 32 27 27 32 36 33 34 32 28 31 26 23 22 25 22 20 16 15 16 15 17 18 16 19 24 26 30 26 27 33 35 40 39 38 30 28
34 32 32 33 34 33 35 35 36 31 28 30 28 27 24 26 31 33 33 33 30 27 31 25 21 23 23 23 17 14 13 12 13 15 13 8 14 22 27 32 29 30 32 32 37 37 23 24 22
35 34 31 33 31 32 33 33 29 26 28 27 26 25 26 28 29 31 30 30 27 30 28 25 20 23 23 23 15 12 11 10 7 9 13 9 9 15 20 30 32 32 31 30 32 23 25 21 19
35 30 29 29 31 30 25 30 29 25 26 25 25 24 27 29 31 31 30 27 31 30 28 27 20 24 25 22 15 12 10 8 5 7 6 9 6 10 22 27 29 31 32 33 32 25 24 24 23
24 25 27 28 26 28 19 25 29 25 20 20 25 27 27 25 29 30 28 32 29 31 29 23 22 25 26 20 16 12 10 7 2 3 4 4 4 9 10 19 27 31 29 28 26 28 28 30 28
24 23 23 25 26 23 21 26 23 22 17 18 24 27 25 20 29 31 32 33 28 28 26 23 24 26 25 21 16 13 9 6 1 1 3 6 4 5 11 19 20 24 26 30 31 30 31 27 27
22 23 22 25 25 21 22 23 25 18 15 24 28 28 28 26 30 31 35 34 29 30 27 23 24 25 23 21 16 14 11 8 4 2 2 8 6 5 7 12 18 20 24 26 30 32 35 28 25
24 24 24 24 23 23 19 22 24 16 14 28 29 27 29 31 33 34 32 32 33 31 31 27 25 23 21 20 18 17 14 11 8 5 2 3 8 4 4 9 21 24 25 23 29 29 29 28 26
24 24 22 20 20 22 19 17 13 10 15 27 29 27 30 34 35 36 34 39 37 36 35 28 28 23 19 17 19 18 16 14 12 9 6 4 5 4 3 3 11 15 16 12 17 27 23 25 28
25 23 22 21 20 20 17 14 12 11 17 26 32 31 34 38 37 38 38 34 42 37 37 30 30 24 20 15 15 17 18 18 17 15 12 11 8 4 2 4 4 4 8 12 12 16 20 21 26
24 22 20 21 18 18 14 14 18 9 7 23 28 34 35 39 36 36 38 32 41 38 37 33 32 24 19 17 17 18 19 21 18 17 15 14 12 9 7 8 8 8 9 11 12 12 12 12 13

GFSSGP_500_spd_081.txt.gz
Wind_Speed
31 33 35 36 37 39 38 38 37 36 34 36 30 27 23 21 22 21 22 21 20 19 18 19 19 20 23 23 23 24 25 26 25 24 22 23 25 27 28 27 25 24 20 23 25 26 27 27 26
34 35 37 38 40 40 41 40 35 35 36 40 32 28 24 24 25 20 23 22 20 20 18 18 20 21 21 23 25 25 25 27 27 27 25 24 25 27 25 24 23 23 21 21 24 26 26 26 25
36 37 40 41 43 43 40 30 34 40 41 36 35 31 27 26 26 24 25 22 21 23 21 20 22 25 25 25 26 28 27 27 29 28 28 28 28 24 25 24 20 24 23 20 22 25 25 26 25
39 41 42 44 43 41 43 42 31 47 42 37 37 33 31 30 25 26 22 23 23 24 21 20 21 25 26 27 28 28 29 29 30 31 29 32 31 28 27 26 23 22 24 21 19 22 25 26 26
41 43 43 44 42 41 42 45 47 45 44 42 39 36 37 31 29 27 25 25 25 25 21 22 23 29 29 29 32 30 29 33 31 32 32 31 31 32 30 30 26 25 24 23 23 24 26 28 28
44 43 46 43 42 44 48 50 45 42 44 43 42 41 41 34 31 30 27 25 26 27 23 24 23 28 31 33 36 33 30 33 35 33 31 30 31 35 30 30 30 31 28 24 25 25 28 32 31
41 46 45 46 45 46 47 54 45 40 42 45 46 47 39 39 33 31 26 26 28 30 24 22 23 27 29 33 36 35 32 32 34 33 31 27 28 23 31 34 39 36 33 26 25 24 30 33 32
46 45 44 43 40 40 39 51 42 44 42 44 47 46 39 42 31 29 29 30 32 32 24 23 27 30 30 33 35 34 34 31 33 33 31 24 22 23 23 24 41 29 28 22 23 22 29 34 32
47 50 48 44 43 43 50 44 44 42 44 43 45 44 45 40 32 31 32 33 34 32 25 22 26 30 33 32 33 33 32 33 32 32 28 24 22 22 23 22 26 28 29 25 21 19 27 33 35
50 50 49 46 47 51 52 44 46 45 42 43 45 46 46 41 32 32 33 35 37 34 26 24 28 30 29 30 32 29 30 32 30 27 24 23 23 19 20 21 21 31 26 25 26 23 25 31 35
51 53 47 49 51 53 52 48 42 45 46 43 46 48 47 43 33 31 33 36 38 36 27 27 28 28 27 32 28 27 30 31 27 26 24 22 22 20 23 20 22 22 28 23 33 27 24 26 32
52 51 51 52 51 54 52 49 44 44 44 44 43 42 45 44 35 31 33 36 38 37 32 28 29 28 28 31 29 27 31 31 26 27 25 23 22 22 23 21 24 22 27 26 29 37 24 25 25
53 52 52 52 54 55 53 51 45 44 47 45 44 43 45 43 37 33 31 36 37 37 33 31 32 30 31 33 32 29 33 31 27 28 25 26 23 25 25 23 23 26 24 23 27 34 32 28 26
53 55 54 53 55 54 53 50 47 44 46 45 43 43 43 41 38 35 35 34 38 34 33 34 32 28 31 31 31 30 34 31 30 31 28 26 27 26 22 22 24 23 23 31 28 28 35 31 29
49 51 54 56 53 52 50 51 47 44 42 44 43 42 41 38 36 36 35 35 36 35 36 32 28 27 28 28 30 32 34 32 32 31 29 28 28 27 26 23 22 23 23 27 28 30 36 31 27
48 54 55 49 51 48 48 49 45 44 39 42 42 39 38 34 34 36 35 34 39 37 34 29 27 27 28 30 28 33 35 32 32 31 30 29 27 27 28 28 24 23 24 29 30 31 35 29 24
55 55 49 39 42 44 44 46 44 47 37 38 39 36 35 32 33 35 33 38 40 37 33 29 27 27 29 29 28 33 34 31 27 28 30 29 29 28 27 28 24 25 28 29 33 35 35 31 20
25 30 31 34 41 39 43 45 46 41 37 37 38 35 32 31 30 33 36 41 38 36 32 29 27 26 28 27 28 31 28 22 21 24 26 28 29 28 29 27 25 27 30 24 38 36 39 37 23
33 32 32 40 34 38 38 41 43 38 38 35 32 32 30 29 29 30 39 39 35 35 32 28 27 26 27 26 27 26 21 19 20 22 25 27 30 31 31 28 27 31 31 33 31 39 39 39 32
30 33 36 38 37 40 37 41 39 35 34 32 32 31 27 27 30 30 39 27 32 33 31 26 26 27 26 27 24 22 20 18 19 20 22 25 27 29 31 31 32 35 31 31 29 35 40 43 37
34 34 31 32 29 30 35 45 32 36 33 30 28 29 28 29 29 30 31 26 31 30 27 26 26 29 25 23 21 19 18 15 18 17 21 24 25 24 26 28 24 30 27 26 26 29 37 41 40
35 33 32 32 33 28 25 31 34 34 33 30 31 30 27 28 28 28 28 25 27 27 27 27 29 28 24 20 21 19 15 15 14 16 15 17 21 21 25 28 29 25 26 32 29 30 35 37 36
32 34 31 32 34 36 29 33 23 29 30 26 27 28 28 28 28 27 28 30 25 30 29 29 30 26 23 20 21 20 14 14 13 14 14 14 20 18 20 27 33 32 33 29 31 32 36 39 31
34 30 29 26 22 33 15 25 19 15 23 23 29 27 30 31 31 29 31 33 28 32 31 32 31 26 21 20 22 18 14 12 11 11 11 9 14 13 13 18 28 32 30 32 29 27 33 27 24
27 25 20 16 18 16 13 20 15 21 19 22 24 26 28 29 26 25 30 32 28 33 32 34 30 23 20 23 22 18 15 11 10 7 6 5 7 11 10 15 25 27 33 28 29 34 32 28 27
23 19 23 12 13 17 14 18 16 21 19 20 24 28 26 32 34 31 33 32 32 32 30 31 29 23 21 24 22 20 15 13 12 11 9 4 5 5 6 9 14 15 25 25 26 31 29 28 27
23 20 18 22 20 22 21 14 19 20 17 18 24 26 28 32 28 29 34 32 32 33 30 31 28 23 23 21 21 21 17 15 14 14 11 8 5 6 4 10 14 17 21 23 19 26 28 28 25
24 24 19 18 17 17 8 7 24 19 18 21 24 29 32 31 32 30 32 34 35 36 30 33 27 25 25 19 19 22 21 18 17 16 14 12 10 6 5 3 13 20 22 20 21 22 25 25 26
25 26 26 22 20 17 14 18 21 19 17 22 26 30 33 32 34 33 34 36 38 32 33 34 30 28 23 20 17 19 22 21 20 18 17 15 13 8 7 6 7 14 17 18 18 11 19 23 24
27 25 20 22 20 23 22 22 15 16 19 21 27 33 35 33 34 35 36 34 35 37 38 37 35 31 24 24 19 17 19 22 22 21 19 17 15 12 8 10 11 10 13 16 16 19 13 14 16

GFSSGP_500_spd_084.txt.gz
Wind_Speed
30 30 31 32 35 36 34 34 33 33 28 37 37 36 31 33 35 31 33 27 23 25 21 17 15 14 15 16 17 18 20 23 24 25 26 27 26 26 26 27 27 28 27 26 24 24 26 27 27
34 33 34 36 39 38 36 33 30 24 30 43 39 34 33 34 34 38 31 30 25 24 22 17 14 15 17 18 20 21 21 23 25 26 27 28 30 29 29 27 25 24 26 25 23 23 26 26 29
37 37 38 40 43 43 37 31 21 17 40 45 38 33 35 37 36 43 31 28 29 25 23 18 15 16 19 21 21 22 23 24 26 27 29 30 31 32 29 28 28 28 23 24 24 23 23 27 29
41 41 42 44 42 38 37 36 30 27 36 51 39 36 41 37 41 44 34 31 29 25 24 20 15 19 21 25 26 25 25 27 27 30 32 32 33 34 32 30 31 28 25 23 24 24 23 27 28
39 41 41 42 40 38 38 37 41 38 45 46 43 41 41 43 43 45 37 34 30 26 24 21 18 21 23 25 29 30 30 31 30 31 32 35 34 34 34 34 36 34 27 27 27 25 24 26 28
42 40 46 44 38 40 41 40 42 46 48 41 45 44 41 43 48 47 41 36 31 27 26 21 20 22 23 24 27 29 29 33 34 35 34 34 33 34 31 28 40 37 34 31 27 27 26 24 26
45 46 46 44 43 41 41 37 40 49 50 45 42 48 47 48 50 50 43 37 31 28 26 22 20 22 24 26 29 30 31 34 36 38 34 33 32 31 33 32 30 31 35 32 27 29 28 26 26
46 50 52 52 45 41 39 38 46 53 51 41 48 46 47 53 51 51 45 37 34 31 28 24 21 23 25 29 31 30 32 37 36 36 34 33 32 31 28 22 27 27 25 37 30 28 26 28 29
44 50 51 49 48 43 40 44 41 53 45 44 45 46 47 53 51 48 45 40 35 33 28 27 23 24 26 31 33 32 34 37 35 33 32 32 30 29 27 23 27 28 29 31 27 27 22 24 28
45 49 47 44 46 48 48 43 51 55 49 48 47 48 48 50 50 45 46 43 39 34 31 30 26 24 29 31 33 34 34 34 31 31 29 28 26 25 24 22 25 25 23 33 24 25 19 20 27
45 49 44 46 48 51 54 57 55 55 51 49 51 47 49 49 48 46 47 41 40 35 35 30 28 26 31 32 31 33 32 30 30 28 28 26 24 23 23 21 22 23 24 21 28 28 24 22 27
50 51 52 51 51 53 56 60 60 54 49 50 52 52 48 50 45 48 47 42 41 37 35 28 30 29 31 31 31 35 30 29 29 27 28 25 22 22 20 20 17 18 21 23 29 20 31 29 29
52 54 55 56 54 55 59 59 58 51 51 50 52 52 51 44 47 47 38 37 38 39 36 31 30 31 32 32 31 35 32 31 29 26 28 24 24 24 21 22 19 19 23 25 28 22 27 32 29
48 51 53 57 60 58 58 57 59 52 52 50 52 51 50 45 48 50 48 40 39 37 37 32 31 30 32 31 30 30 32 33 28 26 27 24 25 26 24 24 21 17 22 25 27 28 28 32 32
46 50 52 53 55 55 53 59 56 53 52 48 49 53 50 48 47 48 45 40 40 35 38 34 31 31 31 30 27 27 30 32 27 27 28 27 27 28 26 25 24 22 21 24 25 26 27 34 35
46 52 53 49 49 50 51 57 52 48 47 48 47 49 49 48 45 44 42 39 40 35 37 34 30 26 31 29 27 28 29 30 26 29 28 28 29 27 25 24 22 22 21 25 26 30 31 33 38
47 47 48 48 48 46 39 56 49 45 45 49 43 47 48 47 42 40 36 37 37 37 36 35 28 26 31 28 27 27 28 28 25 28 28 28 29 27 27 24 23 25 25 25 26 30 35 40 34
41 44 43 46 28 34 39 56 44 35 45 43 39 43 46 43 38 35 33 35 36 39 38 32 29 29 31 27 26 26 27 25 26 25 23 24 25 25 26 27 25 27 26 25 26 29 34 36 38
46 42 41 40 33 32 35 38 34 41 39 41 35 40 39 38 34 33 32 33 35 40 37 28 27 30 28 23 27 24 25 22 26 20 19 23 25 26 27 27 27 28 25 26 28 32 31 37 41
42 37 38 38 30 36 40 41 39 34 42 36 40 36 35 34 34 31 29 33 39 39 29 24 27 27 25 24 26 24 21 18 20 19 21 23 24 25 27 27 29 31 26 28 32 31 30 35 38
33 33 36 35 34 33 39 41 26 35 31 35 34 33 34 34 33 32 32 33 40 29 26 24 26 24 23 26 24 22 16 17 17 19 20 21 23 25 26 27 29 31 29 34 36 32 31 36 40
34 29 31 38 34 38 29 46 25 16 27 16 35 27 30 33 34 31 33 30 36 24 27 26 26 24 23 26 23 19 13 16 18 19 18 20 21 18 20 23 29 30 32 37 36 29 28 35 38
33 29 31 33 37 37 35 37 35 19 12 23 29 33 33 32 33 31 29 28 29 26 27 27 25 24 24 26 22 18 13 17 18 17 18 19 19 17 21 25 29 30 35 33 32 32 30 32 38
28 29 29 27 30 37 15 23 22 9 18 17 26 40 31 33 31 28 28 28 30 27 28 30 27 25 25 26 21 16 14 18 16 16 18 17 16 16 18 21 27 29 32 25 32 32 25 25 31
23 25 26 21 19 4 7 11 6 16 12 26 19 24 31 32 33 34 31 27 31 30 30 30 30 27 26 27 20 15 15 18 16 16 15 12 11 11 19 13 21 25 32 29 30 30 29 29 29
24 21 23 21 15 19 24 17 11 24 24 25 27 27 27 26 26 27 34 36 35 31 30 32 34 29 28 27 20 14 17 19 16 16 16 14 11 10 16 16 12 15 28 29 30 32 29 25 28
22 22 18 21 14 23 21 9 11 27 27 18 23 23 21 25 25 25 29 32 35 33 31 33 35 29 28 24 22 14 21 17 18 18 19 16 12 13 14 12 9 16 16 25 25 26 27 27 28
25 21 21 22 11 17 22 12 28 22 17 20 23 22 22 24 28 31 35 37 36 34 33 34 33 25 28 25 21 16 21 20 20 20 20 18 16 14 12 12 11 15 14 22 23 22 25 29 22
27 26 23 25 26 24 17 23 24 17 23 15 19 23 23 23 30 34 33 33 30 34 34 35 31 26 30 26 19 17 18 22 22 22 22 20 17 16 12 11 8 15 19 18 20 21 21 25 24
24 18 22 21 20 22 23 22 26 18 9 18 19 24 26 23 30 34 35 32 34 36 37 33 29 28 31 27 21 19 18 19 23 23 22 20 20 19 14 8 9 10 17 18 19 17 13 14 22